                ,  0.290,  0.386,  0.483,  0.580,  0.676,  0.773,  0.869,  0.966,  1.063,  1.159,  1.256,  1.352,  1.449,  1.545,  1.642,  1.739,  1.835,  1.932,  2.028,  2.125,  2.222,  2.318,  2.415,  2.511,  2.608,  2.705,  2.801,  2.898,  2.994,  3.091,  3.188,  3.284,  3.381,  3.477,  3.574,  3.671,  3.767,  3.864,  3.960,  4.057,  4.153,  4.250,  4.347,  4.443,  4.540,  4.636,  4.733,  4.830,  4.926,  5.023,  5.119,  5.216,  5.313,  5.409,  5.506,  5.602,  5.699,  5.796
2000/11/17 00:00,  999.0,  999.0,  999.0,  999.0,   -4.4,  999.0,  999.0,  999.0,  999.0,  999.0,  999.0,  999.0,  999.0,  999.0,  999.0,  999.0,  999.0,  999.0,  999.0,  999.0,  999.0,  999.0,  999.0,  999.0,  999.0,  999.0,  999.0,  999.0,  999.0,  999.0,  999.0,  999.0,  999.0,  999.0,  999.0,  999.0,  999.0,  999.0,  999.0,  999.0,  999.0,  999.0,  999.0,  999.0,  999.0,  999.0,  999.0,  999.0,  999.0,  999.0,  999.0,  999.0,  999.0,  999.0,  999.0,  999.0,  999.0,  999.0
2000/11/17 00:10,  999.0,    3.9,   -2.2,   -3.1,   -5.0,   -4.5,   -5.9,   -3.5,  999.0,  999.0,  999.0,  999.0,   -3.0,  999.0,  999.0,   -3.8,  999.0,  999.0,  999.0,  999.0,  999.0,  999.0,  999.0,  999.0,  999.0,  999.0,  999.0,  999.0,  999.0,  999.0,  999.0,  999.0,  999.0,  999.0,  999.0,  999.0,  999.0,  999.0,  999.0,  999.0,  999.0,  999.0,  999.0,  999.0,  999.0,  999.0,  999.0,  999.0,  999.0,  999.0,  999.0,  999.0,  999.0,  999.0,  999.0,  999.0,  999.0,  999.0
2000/11/17 00:20,  999.0,  999.0,   -2.6,   -4.7,   -4.6,   -5.4,   -5.4,  999.0,   -8.7,  999.0,  999.0,   -6.1,   -5.0,  999.0,  999.0,   -3.7,   -3.4,  999.0,   -4.2,   -3.7,  999.0,  999.0,  999.0,  999.0,  999.0,  999.0,  999.0,  999.0,  999.0,  999.0,  999.0,  999.0,  999.0,  999.0,  999.0,  999.0,  999.0,  999.0,  999.0,  999.0,  999.0,  999.0,  999.0,  999.0,  999.0,  999.0,  999.0,  999.0,  999.0,  999.0,  999.0,  999.0,  999.0,  999.0,  999.0,  999.0,  999.0,  999.0
2000/11/17 00:30,  999.0,  999.0,   -3.7,   -3.5,   -3.9,   -4.2,   -4.8,   -4.6,   -4.1,  999.0,   -3.5,   -4.1,   -3.9,   -3.5,   -3.8,   -4.6,  999.0,  999.0,  999.0,  999.0,  999.0,  999.0,  999.0,  999.0,  999.0,  999.0,  999.0,  999.0,  999.0,  999.0,  999.0,  999.0,  999.0,  999.0,  999.0,   -8.6,   -8.4,   -7.8,   -6.8,  999.0,   -5.5,  999.0,   -4.6,   -4.1,   -3.3,   -2.7,   -1.6,   -1.8,   -0.6,   -0.7,  999.0,  999.0,   -1.1,   -0.6,   -0.9,   -0.6,   -0.3,   -0.5
2000/11/17 00:40,  999.0,  999.0,  999.0,   -4.5,   -3.2,   -4.1,   -4.5,  999.0,  -11.8,   -4.6,   -4.3,   -2.6,  999.0,   -4.9,   -3.9,   -5.8,  999.0,   -4.1,  999.0,  999.0,  999.0,  999.0,  999.0,  999.0,  999.0,  999.0,  999.0,  999.0,  999.0,  999.0,  999.0,  999.0,  999.0,  999.0,  999.0,  999.0,   -8.4,  999.0,  999.0,  999.0,   -6.3,   -4.9,   -4.9,  999.0,   -4.1,   -2.2,   -1.3,   -0.6,   -0.6,   -1.1,   -0.7,   -0.4,   -1.2,   -1.4,   -0.5,   -1.6,   -0.7,   -0.5
2000/11/17 00:50,  999.0,  999.0,  999.0,   -1.9,   -3.3,   -3.4,   -3.2,  999.0,  999.0,  999.0,   -4.8,   -3.2,   -3.9,   -4.0,   -4.3,   -4.3,   -4.6,  999.0,  999.0,   -2.8,  999.0,  999.0,  999.0,  999.0,  999.0,  999.0,  999.0,  999.0,  999.0,  999.0,  999.0,  999.0,  999.0,  999.0,  999.0,  999.0,   -8.8,  999.0,   -7.3,  999.0,   -6.6,  999.0,  999.0,  999.0,   -3.6,   -2.4,  999.0,  999.0,   -1.5,   -0.8,   -0.6,  999.0,   -0.8,  999.0,  999.0,   -0.9,   -0.6,   -0.2
2000/11/17 01:00,  999.0,  999.0,    1.4,   -2.4,   -2.5,   -3.3,   -2.7,   -1.1,   -6.8,   -2.4,   -3.2,  999.0,   -4.4,   -4.1,   -4.4,   -4.8,   -5.4,   -6.0,  999.0,   -1.9,  999.0,  999.0,  999.0,  999.0,  999.0,  999.0,  999.0,  999.0,  999.0,  999.0,  999.0,  999.0,  999.0,  999.0,  999.0,   -9.4,   -8.1,   -7.9,   -6.1,   -6.0,   -5.2,   -3.9,   -3.5,   -2.6,   -2.4,   -1.7,   -0.3,   -0.9,   -0.5,   -0.6,   -0.6,   -0.4,   -0.8,  999.0,   -1.0,   -0.8,   -1.0,   -1.0
2000/11/17 01:10,  999.0,  999.0,    0.8,   -2.1,   -2.8,   -3.3,   -3.4,   -2.7,   -3.2,   -3.6,   -2.8,   -5.2,   -2.3,   -3.3,   -3.2,   -6.1,   -5.5,   -5.8,  999.0,  999.0,  999.0,  999.0,  999.0,  999.0,  999.0,  999.0,  999.0,  999.0,  999.0,  999.0,  999.0,  999.0,  999.0,  999.0,   -7.3,   -8.9,   -7.2,   -7.0,   -6.1,   -6.4,   -4.5,   -3.2,   -2.2,   -2.3,   -1.9,   -1.7,   -1.0,   -0.7,  999.0,  999.0,   -0.7,   -1.0,   -0.5,   -1.4,   -0.7,   -0.4,   -0.8,   -1.1
2000/11/17 01:20,  999.0,  999.0,   -1.0,   -2.1,   -2.3,   -1.9,   -3.1,   -2.8,   -2.3,   -1.2,   -2.3,   -3.2,   -3.9,   -3.2,  999.0,   -6.0,   -4.3,   -3.6,   -3.0,   -2.3,   -2.4,  999.0,  999.0,  999.0,  999.0,  999.0,  999.0,  999.0,  999.0,  999.0,  999.0,  999.0,  999.0,  999.0,   -9.0,  999.0,   -6.0,  999.0,   -7.3,   -6.2,   -1.1,  999.0,   -2.7,   -2.4,   -3.9,    0.1,  999.0,   -1.6,   -0.8,   -1.4,   -0.9,   -0.7,   -0.4,   -1.2,  999.0,   -0.8,   -0.8,  999.0
2000/11/17 01:30,  999.0,   -3.1,   -1.3,   -1.8,   -3.1,   -2.5,   -3.3,   -3.9,   -3.3,   -2.8,   -2.6,   -2.7,   -5.2,   -4.4,   -6.4,   -6.6,   -4.2,   -4.0,   -4.0,   -3.6,   -1.6,  999.0,  999.0,  999.0,  999.0,  999.0,  999.0,  999.0,  999.0,  999.0,  999.0,  999.0,  999.0,  999.0,   -4.9,   -5.0,   -3.5,  999.0,   -1.4,   -0.9,   -1.0,   -0.9,   -0.7,   -0.4,   -1.1,   -1.1,   -0.7,   -0.5,  999.0,    0.0,   -0.8,   -0.9,   -1.1,  999.0,   -0.3,   -0.8,   -0.8,   -0.1
2000/11/17 01:40,  999.0,  999.0,   -3.4,   -2.4,   -2.3,   -3.7,   -2.9,   -2.8,   -3.3,   -3.8,   -4.6,   -5.7,   -2.9,   -4.4,   -5.3,   -6.1,  999.0,   -3.2,   -3.4,   -3.1,  999.0,  999.0,  999.0,  999.0,  999.0,  999.0,  999.0,  999.0,  999.0,  999.0,  999.0,  999.0,  999.0,   -8.1,   -5.2,   -5.6,  999.0,   -3.3,   -2.7,   -1.6,   -1.4,   -1.3,   -0.6,   -0.7,   -1.0,   -0.9,   -0.8,   -0.9,   -0.7,   -0.1,   -0.4,   -1.0,   -1.0,   -0.9,   -1.0,   -0.2,   -0.4,   -0.9
2000/11/17 01:50,  999.0,  999.0,  999.0,   -1.0,   -2.0,   -3.2,   -3.5,   -2.5,   -3.1,   -3.4,  999.0,   -2.9,   -3.8,   -4.4,   -5.9,   -6.0,   -6.1,   -5.1,   -0.8,   -0.8,  999.0,  999.0,  999.0,  999.0,  999.0,  999.0,  999.0,  999.0,  999.0,  999.0,  999.0,  999.0,  999.0,   -7.0,   -6.4,   -4.6,   -4.0,  999.0,   -4.5,   -2.7,   -1.7,   -0.7,   -0.7,   -0.8,   -0.6,   -0.5,   -1.0,   -0.5,  999.0,   -0.8,   -0.8,   -0.8,  999.0,   -0.4,   -0.7,   -0.7,   -0.9,    0.1
2000/11/17 02:00,  999.0,  999.0,  999.0,   -1.8,   -2.5,   -3.0,   -2.9,   -3.3,   -3.5,   -3.0,   -2.9,   -3.1,   -2.8,   -3.8,   -4.8,   -5.4,  999.0,   -3.7,   -2.4,   -1.1,  999.0,  999.0,  999.0,  999.0,  999.0,  999.0,  999.0,  999.0,  999.0,  999.0,  999.0,  999.0,  999.0,   -7.5,   -6.6,  999.0,  999.0,   -2.1,   -3.4,   -1.3,   -0.8,   -0.7,   -0.6,   -0.4,   -1.1,   -0.9,   -1.1,   -0.8,   -0.8,  999.0,   -0.8,   -0.8,   -0.3,   -0.7,   -0.9,  999.0,   -0.7,   -0.7
2000/11/17 02:10,  999.0,  999.0,   -1.7,   -2.5,   -3.1,   -2.8,   -2.0,   -2.2,   -2.8,   -2.2,   -2.9,   -2.5,   -4.4,   -4.4,   -5.6,  999.0,   -4.2,   -3.7,  999.0,  999.0,  999.0,  999.0,  999.0,  999.0,  999.0,  999.0,  999.0,  999.0,  999.0,  999.0,  999.0,  999.0,  999.0,  999.0,   -5.5,   -5.4,  999.0,   -3.0,   -0.7,   -2.8,   -2.1,   -3.2,   -2.0,   -0.4,   -4.1,   -2.2,   -1.1,   -0.6,   -0.9,   -0.9,   -0.9,   -1.3,   -0.7,  999.0,   -1.0,  999.0,   -0.4,   -0.5
2000/11/17 02:20,  999.0,   -2.2,  999.0,   -0.9,   -3.2,   -3.5,   -2.5,   -3.2,   -3.8,   -3.2,   -2.9,  999.0,   -3.1,   -4.2,   -5.4,   -5.7,  999.0,   -3.5,  999.0,  999.0,  999.0,  999.0,  999.0,  999.0,  999.0,  999.0,  999.0,  999.0,  999.0,  999.0,   -1.8,   -0.9,   -0.6,  999.0,   -0.8,   -0.7,   -0.0,   -1.0,  999.0,   -0.6,   -0.3,   -0.7,   -0.7,   -0.3,   -0.2,   -0.7,   -0.8,    0.5,   -0.0,  999.0,   -0.2,   -0.3,   -0.6,   -0.9,   -0.6,   -2.0,   -1.4,   -1.1
2000/11/17 02:30,  999.0,  999.0,   -0.2,   -0.5,   -4.5,   -3.1,   -2.3,   -2.6,   -4.8,   -3.0,   -3.1,   -2.8,   -3.7,   -4.5,  999.0,  999.0,   -4.9,  999.0,  999.0,  999.0,  999.0,  999.0,  999.0,  999.0,  999.0,  999.0,  999.0,  999.0,  999.0,  999.0,  999.0,  999.0,  999.0,  999.0,  999.0,  999.0,  999.0,  999.0,  999.0,  999.0,  999.0,  999.0,  999.0,  999.0,  999.0,  999.0,  999.0,  999.0,  999.0,  999.0,  999.0,  999.0,  999.0,  999.0,  999.0,  999.0,  999.0,  999.0
2000/11/17 02:40,  999.0,  999.0,  999.0,   -0.6,   -2.3,   -2.8,   -2.7,   -2.8,  999.0,   -2.5,   -2.9,   -3.2,   -3.2,   -4.7,  999.0,  999.0,   -4.1,  999.0,  999.0,  999.0,  999.0,  999.0,  999.0,  999.0,  999.0,  999.0,  999.0,  999.0,  999.0,  999.0,  999.0,  999.0,  999.0,  999.0,  999.0,  999.0,  999.0,  999.0,  999.0,  999.0,  999.0,  999.0,  999.0,  999.0,  999.0,  999.0,  999.0,  999.0,  999.0,  999.0,  999.0,  999.0,  999.0,  999.0,  999.0,  999.0,  999.0,  999.0
2000/11/17 02:50,  999.0,  999.0,    2.5,   -0.2,  999.0,   -1.3,   -0.7,   -3.5,  999.0,    1.1,   -0.6,  999.0,   -2.5,   -3.5,   -3.5,   -3.7,   -3.3,   -2.2,  999.0,  999.0,  999.0,  999.0,  999.0,  999.0,  999.0,  999.0,  999.0,  999.0,   -3.6,  999.0,  999.0,  999.0,  999.0,  999.0,  999.0,  999.0,  999.0,  999.0,  999.0,   -1.3,  999.0,  999.0,  999.0,   -1.7,   -0.7,  999.0,  999.0,   -1.1,   -1.0,   -0.7,   -0.7,   -0.3,   -0.4,   -1.0,   -0.6,   -0.5,   -0.6,   -0.8
2000/11/17 03:00,  999.0,  999.0,   -1.2,   -1.7,   -1.8,   -1.8,   -2.8,   -3.2,   -1.6,  999.0,   -1.1,  999.0,  999.0,  999.0,   -4.2,   -3.8,   -3.8,   -3.8,  999.0,  999.0,  999.0,  999.0,  999.0,  999.0,  999.0,  999.0,  999.0,  999.0,  999.0,  999.0,  999.0,  999.0,  999.0,   -8.5,  999.0,   -7.1,   -4.6,   -5.1,  999.0,   -3.2,   -3.0,   -0.4,   -1.2,  999.0,   -0.9,   -0.6,   -0.6,   -0.8,   -0.3,   -0.4,   -0.6,   -0.0,   -1.1,   -0.6,   -0.7,   -0.6,   -0.3,   -0.7
2000/11/17 03:10,  999.0,  999.0,    1.1,   -0.6,   -0.2,   -1.9,   -2.2,    1.0,    0.6,   -1.1,  999.0,   -6.1,   -5.5,   -4.5,   -5.2,   -4.2,   -3.5,  999.0,  999.0,  999.0,  999.0,  999.0,  999.0,  999.0,  999.0,  999.0,  999.0,  999.0,  999.0,  999.0,  999.0,  999.0,  999.0,  999.0,  999.0,  999.0,  999.0,  999.0,  999.0,  999.0,  999.0,  999.0,  999.0,  999.0,  999.0,  999.0,  999.0,  999.0,  999.0,  999.0,  999.0,  999.0,  999.0,  999.0,  999.0,  999.0,  999.0,  999.0
2000/11/17 03:20,  999.0,  999.0,   -1.2,   -0.2,   -1.6,   -2.3,   -1.8,   -2.9,   -2.7,   -1.8,   -1.7,   -3.5,   -3.5,   -4.8,   -5.3,   -3.1,  999.0,  999.0,  999.0,  999.0,  999.0,  999.0,  999.0,  999.0,  999.0,  999.0,  999.0,  999.0,  999.0,  999.0,  999.0,  999.0,  999.0,  999.0,  999.0,  999.0,  999.0,  999.0,  999.0,  999.0,  999.0,  999.0,  999.0,  999.0,  999.0,  999.0,  999.0,  999.0,  999.0,  999.0,  999.0,  999.0,  999.0,  999.0,  999.0,  999.0,  999.0,  999.0
2000/11/17 03:30,  999.0,   -4.3,   -2.0,   -1.1,   -1.7,   -1.8,   -2.0,   -1.6,   -1.2,   -1.1,   -1.1,   -2.3,   -3.8,   -4.1,   -4.3,  999.0,  999.0,  999.0,  999.0,  999.0,  999.0,  999.0,  999.0,  999.0,  999.0,  999.0,  999.0,  999.0,  999.0,  999.0,  999.0,  999.0,  999.0,  -13.8,  -13.8,  999.0,  -12.5,  -12.1,  -11.2,  -11.5,  -10.3,  999.0,   -9.1,  999.0,  999.0,  999.0,   -6.5,  999.0,  999.0,  999.0,  999.0,   -4.2,  999.0,  999.0,   -2.2,  999.0,  999.0,  999.0
2000/11/17 03:40,  999.0,    1.7,  999.0,   -0.4,    0.3,  999.0,    0.6,    0.0,   -0.7,   -1.9,   -1.1,   -0.5,   -3.8,   -3.0,   -4.0,   -4.5,  999.0,  999.0,  999.0,  999.0,  999.0,  999.0,  999.0,  999.0,  999.0,  999.0,  999.0,  999.0,  999.0,  999.0,  -15.2,  999.0,  -13.1,  -13.7,  999.0,  -12.9,  -12.0,  -12.1,  999.0,  -11.2,  -10.4,   -9.6,   -9.3,   -8.5,   -8.4,   -8.3,   -6.9,   -7.1,  999.0,   -5.7,   -5.3,   -4.2,   -4.4,   -3.6,   -3.0,  999.0,   -2.2,   -2.1
2000/11/17 03:50,  999.0,    2.7,    2.9,  999.0,    1.8,   -1.4,  999.0,    0.9,   -0.0,   -1.0,   -0.5,   -2.0,  999.0,   -4.0,   -5.1,  999.0,  999.0,  999.0,  999.0,  999.0,  999.0,  999.0,  999.0,  999.0,  999.0,  999.0,  999.0,  999.0,  999.0,  -13.9,  -12.4,  999.0,  -11.7,  -10.7,  999.0,   -9.8,   -9.4,   -8.2,  999.0,  999.0,   -7.1,  999.0,  999.0,   -6.0,  999.0,   -4.0,  999.0,   -1.5,   -2.7,  999.0,   -1.2,    0.1,   -1.4,   -0.3,   -0.6,  999.0,  999.0,   -0.7
2000/11/17 04:00,  999.0,  999.0,   -5.7,  999.0,   -0.8,   -1.3,    0.1,    3.6,    0.9,   -0.3,   -3.1,   -2.0,   -3.2,  999.0,   -6.8,  999.0,   -4.1,  999.0,  999.0,  999.0,  999.0,  999.0,  999.0,  999.0,  999.0,  999.0,  999.0,  999.0,  999.0,  -14.4,  -12.7,  -12.1,  -11.5,  -10.4,  -10.0,  999.0,   -7.9,   -8.0,   -6.8,   -7.5,   -4.5,  999.0,   -8.5,   -2.7,   -3.5,  999.0,   -4.7,   -1.6,   -3.6,   -2.0,   -0.9,   -1.4,   -1.4,   -1.9,   -0.9,   -0.3,  999.0,  999.0
2000/11/17 04:10,  999.0,  999.0,    0.3,  999.0,   -0.6,   -0.8,  999.0,   -0.1,    0.5,   -0.7,   -1.6,  999.0,   -3.0,   -3.9,   -4.5,   -5.3,   -4.5,  999.0,  999.0,  999.0,  999.0,  999.0,  999.0,  999.0,  999.0,  999.0,  999.0,  999.0,  999.0,  999.0,  -11.7,  999.0,  999.0,  -10.0,  -10.7,  999.0,   -7.6,   -7.8,   -6.3,  999.0,   -5.6,  999.0,   -4.8,   -2.7,   -3.0,   -1.6,  999.0,    0.4,    0.2,    0.5,    0.6,   -0.8,   -0.9,   -0.3,   -0.2,  999.0,   -1.2,  999.0
2000/11/17 04:20,  999.0,  999.0,   -4.9,   -1.8,   -0.5,   -1.8,   -0.3,   -0.6,    1.0,   -1.1,    1.3,   -2.7,  999.0,   -3.4,   -3.4,   -3.3,   -3.2,  999.0,  999.0,  999.0,  999.0,  999.0,  999.0,  999.0,  -21.6,  999.0,  999.0,  999.0,  999.0,  999.0,  -16.5,  -15.3,  -14.9,  999.0,  999.0,  -12.1,  999.0,  -10.8,  999.0,  999.0,  999.0,  999.0,  999.0,  999.0,  999.0,  999.0,  999.0,  999.0,  999.0,  999.0,  999.0,  999.0,  999.0,  999.0,  999.0,  999.0,  999.0,  999.0
2000/11/17 04:30,  999.0,  999.0,  999.0,   -1.1,   -1.6,   -0.3,    0.2,   -0.3,  999.0,  999.0,   -0.2,   -1.8,   -3.1,   -3.8,   -3.8,   -4.0,  999.0,   -3.2,  999.0,  999.0,  999.0,  999.0,  999.0,  999.0,  999.0,  999.0,  999.0,  999.0,  999.0,  999.0,  999.0,  999.0,  999.0,  999.0,  999.0,  999.0,  999.0,  999.0,  999.0,  999.0,  999.0,  999.0,  999.0,  999.0,  999.0,  999.0,  999.0,  999.0,  999.0,  999.0,  999.0,  999.0,  999.0,  999.0,   41.9,  999.0,  999.0,  999.0
2000/11/17 04:40,  999.0,  999.0,    2.7,   -0.2,   -0.2,   -0.7,  999.0,   -0.1,   -2.0,  999.0,   -2.0,   -1.1,   -2.6,  999.0,  999.0,   -3.3,  999.0,  999.0,  999.0,  999.0,  999.0,  999.0,  999.0,  999.0,  999.0,  999.0,  999.0,  999.0,  999.0,  999.0,  999.0,  999.0,  999.0,  999.0,  999.0,  999.0,  999.0,  999.0,  999.0,  999.0,  999.0,  999.0,  999.0,  999.0,  999.0,  999.0,  999.0,  999.0,   43.0,  999.0,  999.0,   41.6,  999.0,  999.0,   42.3,  999.0,  999.0,   41.5
2000/11/17 04:50,  999.0,  999.0,    0.7,   -0.7,    0.5,   -0.7,    1.4,  999.0,    0.0,   -0.8,   -0.6,  999.0,  999.0,  999.0,  999.0,  999.0,  999.0,  999.0,  999.0,  999.0,  999.0,  999.0,  999.0,  999.0,  999.0,  999.0,  999.0,  999.0,  999.0,  999.0,  999.0,  999.0,  999.0,  999.0,  999.0,  999.0,  999.0,  999.0,  999.0,  999.0,  999.0,  999.0,  999.0,  999.0,  999.0,  999.0,   42.1,   42.2,   42.0,   41.9,  999.0,   41.9,   41.8,  999.0,  999.0,   42.0,  999.0,   41.9
2000/11/17 05:00,  999.0,  999.0,   -0.8,   -1.5,   -0.6,   -0.8,  999.0,  999.0,  999.0,  999.0,  999.0,  999.0,  999.0,  999.0,  999.0,  999.0,  999.0,  999.0,  999.0,  999.0,  999.0,  999.0,  999.0,  999.0,  999.0,  999.0,  999.0,  999.0,  999.0,  999.0,  999.0,  999.0,  999.0,  999.0,  999.0,  999.0,  999.0,  999.0,  999.0,  999.0,  999.0,  999.0,  999.0,   41.2,  999.0,   41.3,   41.5,  999.0,   41.8,   41.7,  999.0,   41.1,   42.0,  999.0,   41.5,   41.4,   42.0,   41.9
2000/11/17 05:10,  999.0,  999.0,  999.0,    0.1,   -0.7,   -0.7,  999.0,   -0.7,    0.5,  999.0,  999.0,  999.0,  999.0,  999.0,  999.0,  999.0,  999.0,  999.0,  999.0,  999.0,  999.0,  999.0,  999.0,  999.0,  999.0,  999.0,  999.0,  999.0,  999.0,  999.0,  999.0,  999.0,  999.0,  999.0,  999.0,  999.0,  999.0,  999.0,   34.7,  999.0,   35.8,   36.7,  999.0,   39.7,   40.7,   41.4,   41.9,  999.0,  999.0,   41.9,   41.7,   41.7,  999.0,  999.0,  999.0,   41.7,   41.7,   42.0
2000/11/17 05:20,  999.0,  999.0,  999.0,  999.0,   -0.3,   -1.5,  999.0,  999.0,   -0.4,  999.0,   -0.6,   -1.1,  999.0,  999.0,  999.0,  999.0,  999.0,  999.0,  999.0,  999.0,  999.0,  999.0,  999.0,  999.0,  999.0,  999.0,  999.0,  999.0,  999.0,  999.0,  999.0,  999.0,  999.0,  999.0,   33.5,  999.0,  999.0,  999.0,   37.0,   36.9,  999.0,   39.1,  999.0,  999.0,   42.4,   42.1,   41.8,   41.2,   42.1,   42.0,   41.8,   41.4,  999.0,  999.0,  999.0,   41.7,  999.0,   41.7
2000/11/17 05:30,  999.0,  999.0,   -1.0,   -0.3,   -1.9,   -0.1,   -0.2,   -0.3,  999.0,    0.6,   -2.4,   -0.4,   -3.1,   -3.4,  999.0,  999.0,  999.0,  999.0,  999.0,  999.0,  999.0,  999.0,  999.0,  999.0,  999.0,  999.0,  999.0,  999.0,  999.0,  999.0,  999.0,   33.3,   38.1,  999.0,   37.9,   38.8,  999.0,   38.9,   38.1,   40.9,   40.1,  999.0,   41.2,  999.0,   43.0,   41.5,  999.0,   41.9,   41.9,  999.0,   41.8,   41.8,   41.6,   42.0,   42.2,   42.3,   41.9,   40.9
2000/11/17 05:40,  999.0,    0.8,   -0.0,    6.6,    0.1,  999.0,    2.7,    0.3,   -2.9,   -2.6,   -0.4,   -2.6,   -4.6,   -4.7,   -5.1,  999.0,  999.0,  999.0,  999.0,  999.0,  999.0,  999.0,  999.0,   30.8,  999.0,  999.0,  999.0,   32.9,  999.0,   37.4,  999.0,   34.1,   41.4,   38.3,   41.3,  999.0,   39.8,   40.0,   40.9,   40.6,   41.7,   41.9,   42.2,   41.8,   41.3,   41.2,   41.8,  999.0,   40.7,   41.5,   42.5,  999.0,  999.0,  999.0,  999.0,   41.2,  999.0,   41.1
2000/11/17 05:50,  999.0,  999.0,    0.4,    2.6,   -0.4,  999.0,  999.0,    2.7,  999.0,   -0.6,   -0.7,   -2.8,   -4.4,   -4.2,   -5.6,  999.0,  999.0,  999.0,  999.0,  999.0,  999.0,  999.0,  999.0,  999.0,  999.0,  999.0,  999.0,  999.0,  999.0,  999.0,  999.0,  999.0,  999.0,  999.0,  999.0,  999.0,  999.0,  999.0,  999.0,  999.0,  999.0,  999.0,  999.0,  999.0,  999.0,  999.0,  999.0,  999.0,  999.0,  999.0,  999.0,  999.0,  999.0,  999.0,  999.0,  999.0,  999.0,  999.0
2000/11/17 06:00,  999.0,    0.1,   -0.5,   -0.7,   -0.8,   -0.1,  999.0,    2.4,   -1.2,   -0.3,   -1.3,   -2.2,   -3.8,   -4.9,   -5.6,   -3.1,  999.0,  999.0,  999.0,  999.0,  999.0,  999.0,  999.0,  999.0,  999.0,  999.0,  999.0,  999.0,  999.0,  999.0,  999.0,  999.0,  999.0,  999.0,  999.0,  999.0,  999.0,  999.0,  999.0,  999.0,  999.0,  999.0,  999.0,  999.0,  999.0,  999.0,  999.0,  999.0,  999.0,  999.0,  999.0,  999.0,  999.0,  999.0,  999.0,  999.0,  999.0,  999.0
2000/11/17 06:10,  999.0,    1.1,    0.2,   -0.7,    0.4,    0.4,    3.1,    3.5,    1.1,    3.0,   -1.2,   -1.4,   -3.1,   -5.8,   -6.6,  999.0,  999.0,   -1.2,  999.0,  999.0,  999.0,  999.0,  999.0,  999.0,  999.0,  999.0,  999.0,  999.0,  999.0,  999.0,  999.0,  999.0,  999.0,  999.0,  999.0,  999.0,  999.0,  999.0,  999.0,  999.0,  999.0,  999.0,  999.0,  999.0,  999.0,  999.0,  999.0,  999.0,  999.0,  999.0,  999.0,  999.0,  999.0,  999.0,  999.0,  999.0,  999.0,  999.0
2000/11/17 06:20,  999.0,    2.5,    0.9,   -0.6,   -0.6,    0.1,  999.0,  999.0,    5.5,    4.1,   -0.9,  999.0,    0.8,   -0.8,  999.0,   -1.1,  999.0,  999.0,  999.0,  999.0,  999.0,  999.0,  999.0,  999.0,  999.0,  999.0,  999.0,  999.0,  999.0,  999.0,  999.0,  999.0,  999.0,  999.0,  999.0,  999.0,  999.0,  999.0,  999.0,  999.0,  999.0,  999.0,  999.0,  999.0,  999.0,  999.0,  999.0,  999.0,  999.0,  999.0,  999.0,  999.0,  999.0,  999.0,  999.0,  999.0,  999.0,  999.0
2000/11/17 06:30,  999.0,    1.2,   -0.4,   -0.9,   -1.0,   -0.8,  999.0,    0.2,   -1.2,  999.0,    4.3,  999.0,  999.0,  999.0,  999.0,  999.0,  999.0,  999.0,  999.0,  999.0,  999.0,  999.0,  999.0,  999.0,  999.0,  999.0,  999.0,  999.0,  999.0,  999.0,  999.0,  999.0,  999.0,  999.0,  999.0,  999.0,  999.0,  999.0,  999.0,  999.0,  999.0,  999.0,  999.0,  999.0,  999.0,  999.0,   -0.3,   -1.7,  999.0,  999.0,  999.0,  999.0,  999.0,  999.0,  999.0,  999.0,  999.0,  999.0
2000/11/17 06:40,  999.0,    1.7,    0.4,    0.3,   -0.3,    0.8,   -0.5,  999.0,    0.4,  999.0,  999.0,   -2.3,    0.1,   -3.7,   -6.2,  999.0,  999.0,  999.0,  999.0,  999.0,  999.0,  999.0,  999.0,  999.0,  999.0,  999.0,  999.0,  999.0,  999.0,  999.0,  999.0,  999.0,  999.0,  999.0,  999.0,  999.0,  999.0,  999.0,  999.0,  999.0,  999.0,  999.0,  999.0,  999.0,  999.0,   -0.0,   -1.0,   -0.4,  999.0,   -1.1,   -0.3,  999.0,   -1.1,   -0.0,  999.0,  999.0,  999.0,   -1.0
2000/11/17 06:50,  999.0,  999.0,   -1.2,   -0.3,    0.2,   -0.1,  999.0,  999.0,    0.3,   -1.3,   -1.5,  999.0,  999.0,  999.0,  999.0,  999.0,  999.0,  999.0,  999.0,  999.0,  999.0,  999.0,  999.0,  999.0,  999.0,  999.0,  999.0,  999.0,  999.0,  999.0,  999.0,  999.0,  999.0,  999.0,  999.0,  999.0,  999.0,  999.0,  999.0,  999.0,  999.0,  999.0,   -4.2,   -2.1,  999.0,  999.0,  999.0,   -1.0,   -1.3,   -0.8,   -0.8,   -0.9,  999.0,  999.0,   -1.2,   -0.7,  999.0,  999.0
2000/11/17 07:00,  999.0,    3.3,   -0.5,   -1.1,    0.2,    0.1,    1.0,    1.0,   -0.1,   -1.4,  999.0,   -4.3,   -4.2,  999.0,  999.0,  999.0,  999.0,  999.0,  999.0,  999.0,  999.0,  999.0,  999.0,  999.0,  999.0,  999.0,  999.0,  999.0,  999.0,  999.0,   -1.9,  999.0,  999.0,  999.0,  999.0,  999.0,   -3.3,  999.0,  999.0,  999.0,  999.0,   -0.3,  999.0,   -0.2,   -0.7,   -1.0,   -0.7,  999.0,   -0.7,   -0.8,  999.0,   -0.9,   -1.0,   -1.5,   -1.0,   -1.0,   -0.6,   -0.9
2000/11/17 07:10,  999.0,    0.1,    0.3,   -1.8,   -0.8,   -0.9,   -3.2,    4.1,    0.4,    0.2,    0.1,  999.0,  999.0,  999.0,  999.0,  999.0,  999.0,  999.0,  999.0,  999.0,  999.0,  999.0,  999.0,  999.0,  999.0,  999.0,  999.0,  999.0,  999.0,   40.2,  999.0,  999.0,  999.0,  999.0,  999.0,  999.0,  999.0,  999.0,  999.0,   42.6,  999.0,  999.0,  999.0,  999.0,  999.0,  999.0,  999.0,   -0.3,   -0.5,   -0.6,   -0.1,  999.0,   -1.1,   -1.0,   -1.0,   -1.4,   -1.1,   -0.9
2000/11/17 07:20,  999.0,  999.0,  999.0,   -1.9,    1.1,  999.0,   -0.8,   -1.0,    1.4,    1.7,   -3.4,  999.0,  999.0,  999.0,  999.0,  999.0,  999.0,  999.0,  999.0,  999.0,  999.0,  999.0,  999.0,  999.0,  999.0,  999.0,  999.0,  999.0,  999.0,  999.0,  999.0,  999.0,  999.0,   41.0,  999.0,  999.0,  999.0,   42.1,   42.0,  999.0,  999.0,  999.0,  999.0,  999.0,  999.0,  999.0,   20.8,  999.0,  999.0,  999.0,  999.0,  999.0,  999.0,   -0.7,   -0.8,   -0.8,   -0.7,   -0.6
2000/11/17 07:30,  999.0,  999.0,  999.0,  999.0,   -1.4,   -2.2,   -1.4,   -1.4,    0.1,   -1.1,    0.8,  999.0,  999.0,  999.0,  999.0,  999.0,  999.0,   -4.6,  999.0,  999.0,  999.0,  999.0,  999.0,  999.0,  999.0,  999.0,  999.0,  999.0,  999.0,  999.0,  999.0,  999.0,  999.0,  999.0,  999.0,  999.0,  999.0,  999.0,  999.0,  999.0,  999.0,  999.0,    5.9,  999.0,  999.0,  999.0,   -0.5,  999.0,   -1.0,   -0.9,    0.3,  999.0,   -0.2,   -0.8,   -0.6,   -0.5,   -0.5,   -0.6
2000/11/17 07:40,  999.0,  999.0,  999.0,  999.0,   -0.7,   -1.9,   -0.9,   -2.0,  999.0,  999.0,  999.0,  999.0,   -5.1,   -5.0,   -2.6,  999.0,  999.0,  999.0,  999.0,  -17.1,  999.0,  999.0,  999.0,  -14.3,    0.2,   -9.4,   -9.2,  999.0,  999.0,   -4.9,   -6.0,  999.0,   -5.9,   -5.6,  999.0,   -1.9,   -2.1,   -0.5,   -0.7,   -0.4,  999.0,   -0.3,   -1.4,   -1.3,   -1.1,   -0.5,  999.0,   -0.9,   -0.8,   -1.0,   -0.6,   -1.0,   -0.7,   -0.9,  999.0,   -0.6,   -0.7,   -0.4
2000/11/17 07:50,  999.0,  999.0,  999.0,   -2.9,   -0.7,   -0.2,   -1.1,   -1.1,   -1.4,   -2.7,  999.0,   -3.4,   -3.2,   -4.9,   -5.4,  999.0,   -9.6,  999.0,  999.0,  999.0,  999.0,  999.0,  999.0,  -10.7,  999.0,   -9.4,   -9.8,  999.0,   -3.6,   -2.5,   -1.1,   -2.4,   19.4,    6.1,   13.0,   -0.9,    9.5,    0.1,   20.6,   20.6,   13.5,   -0.2,   13.6,   21.0,   -1.0,   41.7,   10.0,    6.3,   -1.0,   -0.8,  999.0,   -0.7,   -0.7,  999.0,   -0.8,   -0.7,   -0.3,  999.0
2000/11/17 08:00,  999.0,  999.0,  999.0,   -1.7,   -2.2,   -0.7,   -1.4,   -1.2,   -1.3,   -1.8,   -3.5,  999.0,   -4.6,   -3.8,   -2.8,  999.0,  999.0,  999.0,  999.0,  999.0,  999.0,  999.0,  999.0,  999.0,  -10.7,   -9.0,   -7.4,   -6.5,   -4.8,   -3.8,   -2.5,   -1.3,   -0.6,   -0.6,   -0.7,   -0.9,   -1.5,  999.0,   -1.1,   -1.1,   -0.8,   -0.4,   -0.5,   -1.0,   -0.8,   -1.0,   -1.3,   -0.8,   -0.8,   -0.9,   -0.9,   -0.4,   -0.7,   -0.2,   -0.6,   -0.3,   -0.8,    0.7
2000/11/17 08:10,  999.0,  999.0,  999.0,  999.0,   -4.0,   -0.7,   -1.4,   -1.8,   -0.1,   -0.2,  999.0,  999.0,   -4.9,   -4.6,   -2.8,  999.0,   -2.6,  999.0,  999.0,  999.0,  999.0,  999.0,  999.0,  999.0,  999.0,   -8.8,   -7.4,   -5.7,   -5.5,   -4.4,   -3.2,   -1.4,   -1.5,   -0.8,   -0.6,   -0.6,   -0.8,   -0.8,   -0.8,   -0.8,   -0.6,   -0.7,   -0.8,   -1.3,  999.0,   -1.4,   -1.0,   -0.9,   -1.0,   -0.9,   -0.5,   -0.8,   -0.3,  999.0,  -14.5,   -1.3,  -14.7,   -1.6
2000/11/17 08:20,  999.0,  999.0,  999.0,  999.0,   -1.6,   -0.9,   -2.1,  999.0,   -6.2,   -2.9,  999.0,  999.0,   -5.7,  999.0,  999.0,  999.0,  -20.3,  999.0,   -5.9,  -16.0,  -15.4,  999.0,  999.0,  999.0,  -11.7,   -8.4,   -7.4,   -6.6,   -7.7,   -3.9,   -3.8,   -2.3,   -0.7,   -1.5,   -1.1,   -1.5,   -0.9,   -0.9,   -0.6,   -1.0,   -0.9,   -0.8,   -0.6,   -0.4,   -0.5,   -0.4,   -0.5,   -0.3,   -1.0,   -0.5,   -0.7,   -1.1,   -1.0,   -0.7,   -0.8,   -0.7,   -0.2,   -0.4
2000/11/17 08:30,  999.0,    0.5,   -4.9,   -3.7,  999.0,   -2.6,   -0.5,    0.5,  999.0,  -21.8,  999.0,  -21.7,  -20.9,  -21.3,   -0.0,  999.0,  -14.0,  -19.2,  999.0,  -20.4,  -18.8,  -19.9,  999.0,  -10.5,  999.0,  999.0,  999.0,   -4.3,   -2.5,   -0.7,  999.0,  999.0,  999.0,   -1.6,   -1.1,   -0.6,   -0.6,  999.0,  999.0,  -41.7,   -0.3,  999.0,   -0.6,  999.0,   -1.0,  999.0,  999.0,   -1.2,    1.0,    1.5,    1.1,    1.1,    0.5,    0.6,    0.2,  999.0,    1.3,    1.9
2000/11/17 08:40,  999.0,   -1.0,   -3.5,   -3.7,   -4.0,   -4.2,   -3.2,   -2.5,   -2.5,  999.0,  999.0,  999.0,  999.0,  -21.7,  999.0,  999.0,  999.0,  -20.6,  -19.1,  -18.8,  -18.1,  -16.7,  -16.1,  999.0,  -14.5,  -13.2,  999.0,  -12.0,  -10.4,  -10.2,   -9.1,    6.0,    7.3,   20.8,    3.3,    8.1,  999.0,    4.9,    5.5,   -1.0,   -0.4,   15.1,   -0.7,  999.0,   -0.7,   -0.9,   -0.7,   -0.4,   -0.4,  999.0,    9.7,  999.0,    3.1,  999.0,   13.4,   41.7,   10.3,   17.8
2000/11/17 08:50,  999.0,   -0.9,   -3.4,   -4.4,   -3.1,   -2.3,   -2.8,   -5.3,  999.0,    0.9,  999.0,  -21.0,  -22.0,  -21.5,  -22.0,  -21.8,  -22.3,  -22.8,  -23.8,  -25.0,  -26.1,  -26.9,  -28.0,  -28.9,  -29.9,  999.0,  -32.0,  999.0,  -33.7,  999.0,  -35.0,  999.0,  -36.7,    6.2,  -16.5,  -39.3,  999.0,  999.0,  999.0,  -42.1,  -42.2,  -42.0,    1.2,  -20.3,  -41.5,    0.6,  -42.4,  -27.1,  -20.5,  -20.2,    0.9,    1.4,  999.0,  -41.6,  -41.6,  -42.0,  999.0,  999.0
2000/11/17 09:00,  999.0,  999.0,   -3.8,   -4.4,   -5.1,   -3.3,   -3.5,   -0.7,   -5.9,   -2.9,   10.7,   -0.4,  -20.8,  -21.3,  999.0,  -21.6,  -22.0,  -22.7,  -24.5,  -25.6,  -15.6,  -13.0,   -6.9,    3.1,  -16.0,  -31.9,   -4.2,   -5.1,    8.2,  -21.1,   -4.7,  -16.5,    3.0,  -18.8,    1.1,  -20.4,  -34.8,  -20.9,  -13.9,  -20.7,  -27.9,  -41.8,  -20.9,  -20.9,  -42.1,  -34.9,  -31.2,  -35.1,  -20.7,  -20.9,  -20.7,    1.4,  -31.0,  -31.6,  -41.6,  -20.8,    1.0,    0.2
2000/11/17 09:10,  999.0,   -0.2,   -0.8,   -0.5,   -4.8,   -3.6,   -1.4,   -0.7,  999.0,  999.0,  -21.4,   -3.2,  999.0,   -3.0,  -13.3,  999.0,  -21.5,  -22.5,  -23.1,  -21.7,  999.0,  -25.9,  999.0,  -27.4,  999.0,   12.0,   -9.2,    9.4,    8.0,   19.0,   15.8,    6.9,    2.3,    0.9,   35.9,   18.6,   21.7,    4.4,   40.4,    2.5,    2.6,    1.4,    0.8,  999.0,  999.0,  999.0,  999.0,    0.5,    9.9,    0.2,    0.4,  999.0,    1.0,   41.5,    1.1,    0.8,  999.0,   11.8
2000/11/17 09:20,  999.0,   -1.3,    0.5,    0.6,   -1.6,   -1.9,   -4.4,  999.0,   -1.7,   -1.8,  999.0,  999.0,  999.0,  999.0,  999.0,  999.0,  999.0,  999.0,  999.0,  999.0,  999.0,  999.0,  999.0,  999.0,   14.3,   13.5,  999.0,   11.5,   10.5,    9.9,    9.0,    8.0,    7.5,    6.5,    6.0,    5.2,  999.0,    3.4,    1.6,    2.6,    1.5,    0.6,  999.0,    0.1,   -0.1,    0.6,    0.5,    0.6,    0.5,    0.5,    0.6,    0.7,    0.6,    1.2,    0.6,    1.0,    0.7,    1.1
2000/11/17 09:30,  999.0,   -0.2,   -1.1,   -1.7,   -3.5,   -4.4,   -1.3,   -1.5,   -1.3,   -1.4,  999.0,  999.0,  999.0,  999.0,   11.8,   -5.2,  999.0,  999.0,  999.0,  999.0,   15.5,   14.7,  999.0,   11.8,   10.9,   10.1,  -11.4,    8.0,    6.8,   -7.5,   -8.3,  -16.1,  -17.5,    4.8,  -17.5,    0.8,    2.4,  -25.3,  -20.3,  -41.5,   -9.3,  -41.9,   -9.6,  -20.1,  -41.8,  -41.7,  -42.0,  -20.2,  -41.3,  -31.1,  -30.9,  999.0,  -34.8,  -20.4,  -20.3,   -9.3,  -20.8,  -31.2
2000/11/17 09:40,  999.0,  999.0,   -3.3,   -2.7,   -3.0,   -2.6,   -0.3,   -0.9,   -1.2,   -2.9,  -13.0,  999.0,   -2.2,  999.0,  -21.2,  999.0,  999.0,  -23.6,  999.0,  999.0,  -26.7,  999.0,  -28.3,  -29.4,  999.0,  -31.0,  -32.7,  -34.4,  -35.4,  -36.0,  -37.3,  -38.5,  -39.2,  -40.6,  -40.4,  -41.3,  -42.2,  -41.7,  -42.0,  -41.5,  -42.2,  -42.1,  -41.7,  -41.9,  -41.9,  -41.4,  -41.6,  -41.3,  -41.8,  999.0,  -42.0,  -41.8,  -41.4,  -41.7,  -41.3,  -41.9,  -41.5,  -42.1
2000/11/17 09:50,  999.0,   -0.4,   -0.5,   -0.8,   -0.6,   -2.1,   -2.0,   -3.6,   -2.8,   -2.4,  999.0,  999.0,  999.0,  999.0,  999.0,  999.0,  999.0,  999.0,  999.0,  -26.7,  -27.5,  -28.6,  -29.9,  -31.5,  -32.2,  -33.5,  -34.6,  -36.0,  -36.8,  -38.0,  -38.4,  -40.4,  -41.0,  -41.9,  -41.9,  -41.8,  -42.0,  -41.9,  -42.0,  -41.9,  -41.7,  -41.8,  -42.1,  -41.8,  -28.0,  -34.7,  -27.9,  -42.2,  -31.2,  -41.8,  -34.8,  -41.8,  -27.6,  -34.9,  -42.0,  -34.8,  -30.7,  -41.6
2000/11/17 10:00,  999.0,   -0.8,    0.1,    0.1,   -1.2,   -2.1,   -3.7,   -4.7,   -3.1,  999.0,   -3.2,  999.0,  999.0,  999.0,  999.0,  999.0,  999.0,  999.0,  999.0,  -28.3,  -28.8,  -29.2,  -31.4,  -35.1,  -34.4,  -36.2,  -37.1,  -41.9,  -39.4,  -42.0,  -40.6,  -41.2,  -42.0,  -41.7,  -41.9,  -41.8,  -41.3,  -41.7,  -41.3,  -42.1,  -42.0,  -41.9,  -41.9,  -41.6,  -42.1,  -41.9,  -41.8,  -41.8,  -41.7,  -41.9,  -41.6,  -42.1,  -42.0,  -42.1,  -42.3,  -41.9,  -41.4,  -41.1
2000/11/17 10:10,  999.0,  999.0,    0.1,    1.2,    1.4,   -0.3,   -1.2,   -1.8,   -2.4,   -2.5,   -3.0,  999.0,  999.0,  999.0,  999.0,  999.0,  999.0,  999.0,  999.0,  999.0,  -29.7,  999.0,  -33.2,  -34.8,  -36.5,  -37.0,  -39.6,  -42.2,  -41.4,  -42.0,  -41.7,  -41.4,  -41.8,  -42.1,  -41.6,  999.0,  -41.9,  -41.8,  -41.9,  -41.7,  -41.7,  -41.7,  -41.6,  -41.9,  -42.1,  -42.1,  -41.7,  -41.8,  -41.9,  -42.3,  -41.4,  -41.9,  -42.1,  -34.8,    0.8,  -20.2,  -34.6,  -41.7
2000/11/17 10:20,  999.0,   -0.6,   -1.3,   -0.6,   -0.7,   -2.2,   -1.4,   -1.5,   -1.9,   -2.1,   -2.2,   -2.9,   -2.6,  999.0,  999.0,  999.0,  999.0,  999.0,  999.0,  -28.3,  -30.4,  -31.8,  -33.4,  -34.7,  -37.1,  -39.1,  -41.2,  -41.2,  -41.5,  -41.8,  -41.8,  -42.0,  -41.9,  -41.7,  -42.0,  -42.4,  -41.9,  -42.1,  -41.9,  -41.8,  999.0,  -41.6,  -41.6,  -41.8,  -41.8,  -41.7,  -41.7,  -41.7,  -41.6,  -41.9,  -41.8,  -41.9,  -42.1,  -41.6,  -41.9,  -41.8,  -42.0,  -41.6
2000/11/17 10:30,  999.0,    0.8,   -1.2,    0.0,    0.2,   -0.5,   -1.3,   -1.3,   -1.1,   -2.1,   -3.5,   -2.9,   -2.9,   -3.6,   -2.8,  999.0,  999.0,  999.0,  -29.7,  -30.0,  -33.0,  -32.4,  -36.3,  -38.4,  -40.8,  -40.0,  -41.0,  999.0,  -41.7,  -42.3,  -41.8,  -41.8,  -41.5,  -41.7,  -41.7,  -42.1,  -41.5,  -41.6,  -42.0,  -41.6,  -41.6,  -41.8,  -41.7,  -41.9,  -27.6,  -20.3,  -41.4,  999.0,  -31.0,  -34.9,  -31.2,  -41.1,  -27.6,  -20.8,  -27.2,  -20.7,  -41.2,  -20.4
2000/11/17 10:40,  999.0,   -0.9,   -0.9,   -0.6,   -3.2,   -0.8,   -2.2,   -1.1,   -2.3,   -2.8,   -3.6,   -4.0,  999.0,   -4.3,   -6.5,   -7.2,  999.0,  999.0,  999.0,  999.0,  999.0,  -35.4,  -37.3,  -38.8,  999.0,  -41.6,  -41.8,  -42.0,  -41.7,  -41.1,  -41.8,  -41.6,  -41.3,  -41.1,  999.0,  -42.3,  999.0,  999.0,  999.0,  999.0,  -41.6,  999.0,  999.0,  999.0,  -20.2,    1.0,    0.6,  -20.2,    0.5,    0.5,    0.8,  -13.2,  -20.2,    0.8,   -6.2,  -13.3,  -41.6,  -10.0
2000/11/17 10:50,  999.0,    0.4,   -0.1,   -0.8,   -1.7,   -1.7,   -3.0,   -3.3,   -3.1,   -3.3,   -4.4,   -4.7,   -4.6,   -4.5,   -5.8,   -7.2,   -9.8,  -10.2,  999.0,  999.0,  999.0,  999.0,  999.0,  999.0,  999.0,  999.0,  999.0,  999.0,  999.0,  999.0,  999.0,  999.0,  999.0,  999.0,  999.0,    0.6,   -0.0,  999.0,    0.2,   -0.1,  999.0,    0.6,  999.0,    0.7,  999.0,    0.8,    0.5,    0.6,    0.7,    1.0,    0.9,    0.8,    0.9,    0.9,    0.9,    0.7,  999.0,    0.9
2000/11/17 11:00,  999.0,   -3.1,    0.2,    0.8,   -0.5,   -1.8,   -0.3,   -1.0,   -0.7,   -1.8,   -3.3,   -4.2,   -4.0,   -5.0,   -5.6,   -6.1,   -7.3,   -7.8,  -11.6,  -15.7,  -16.4,  -11.8,  -15.4,  -19.2,  999.0,  999.0,  999.0,  999.0,  999.0,  999.0,  999.0,  999.0,    0.7,    1.2,    0.9,    0.4,    0.3,    0.4,    0.6,    0.7,    0.8,    0.9,    0.7,    0.4,    0.6,    1.0,    0.7,    0.6,    1.2,    0.8,    0.8,    0.8,    0.7,    0.6,    0.7,    0.1,    0.7,    0.4
2000/11/17 11:10,  999.0,   -1.8,   -0.1,    0.8,   -0.7,   -2.6,   -3.1,   -2.3,   -3.1,   -3.1,   -3.3,   -3.4,   -3.9,   -3.6,   -5.1,   -6.4,  999.0,  999.0,  999.0,  999.0,  999.0,  999.0,  -23.2,  999.0,  999.0,  999.0,  999.0,  999.0,  999.0,  999.0,  999.0,    0.8,    0.6,    0.7,    0.8,    0.6,    0.7,    0.9,    0.4,    0.8,    0.6,    0.9,    1.2,    0.8,    0.9,    1.1,    0.6,    1.1,    0.7,    0.9,    0.7,    1.0,    0.7,    0.3,    0.4,    0.9,    0.4,  999.0
2000/11/17 11:20,  999.0,   -0.2,   -0.5,   -1.1,   -2.1,   -3.6,   -3.2,   -3.7,   -3.6,   -3.4,   -3.1,   -5.2,   -5.2,   -5.8,   -5.7,   -7.2,  999.0,  -12.2,  999.0,  999.0,  999.0,  999.0,  999.0,  999.0,  999.0,  999.0,  999.0,  999.0,  999.0,  999.0,  999.0,    0.7,    0.7,    0.7,    1.2,    0.8,    0.2,    1.1,    0.6,    0.5,    0.5,    0.6,    1.0,    0.3,    0.6,    1.1,    1.3,    0.9,    0.8,    0.6,    0.3,    0.5,    0.8,    0.2,    0.7,    0.9,    0.9,    0.4
2000/11/17 11:30,  999.0,  999.0,   -0.8,   -1.2,   -2.1,   -2.9,   -3.5,   -2.8,   -2.9,   -4.2,   -4.2,   -5.4,   -7.3,   -6.6,   -7.1,   -6.9,  -11.6,  999.0,  999.0,  999.0,  999.0,  999.0,  999.0,  999.0,  999.0,  999.0,  999.0,  999.0,  999.0,  999.0,  999.0,    1.2,    0.5,    0.6,    0.4,    1.2,    0.5,    0.7,    0.5,    1.1,    0.6,    0.8,    1.0,    0.9,    0.7,    0.5,    0.6,    1.0,    0.7,    0.9,    0.6,    0.6,    0.4,    1.0,    0.8,    1.6,    1.1,    0.9
2000/11/17 11:40,  999.0,    1.0,    0.7,    0.2,   -1.2,   -0.6,   -0.2,    0.2,   -2.9,   -4.1,   -4.7,   -6.0,   -6.7,   -8.2,   -8.7,  -11.5,  999.0,  999.0,  999.0,  999.0,  999.0,  999.0,  999.0,  999.0,  999.0,  999.0,  999.0,  999.0,  999.0,  999.0,  999.0,  999.0,    1.0,    0.6,    0.5,    1.1,    0.8,    1.1,    0.8,    0.6,    0.7,    0.6,    1.1,    0.8,    0.7,    0.6,    0.7,    0.9,    0.8,    0.8,    0.6,    1.0,    0.7,    0.9,    0.7,    0.5,    1.0,    0.4
2000/11/17 11:50,  999.0,    1.5,    0.9,   -1.0,   -1.2,   -0.9,   -2.6,   -2.2,   -3.2,   -3.9,   -4.3,   -4.9,   -6.0,   -6.8,   -6.8,   -8.7,  -11.2,  -18.2,  -15.8,  999.0,  999.0,  999.0,  999.0,  999.0,  999.0,  999.0,  999.0,  999.0,  999.0,  999.0,    0.3,    0.1,    0.9,    0.7,    0.8,    0.9,    1.0,    0.9,    0.6,    1.1,    0.6,    0.5,    0.5,    0.5,    0.6,    0.6,    0.8,    0.8,    0.4,    0.9,    0.8,    0.8,    0.8,    0.9,    0.6,    0.6,    0.8,    0.7
2000/11/17 12:00,  999.0,   -0.5,    0.3,   -1.1,   -0.1,   -1.9,   -4.3,   -4.8,   -4.2,   -4.5,   -4.9,   -5.8,   -7.0,   -4.1,   -4.3,   -8.8,  -10.6,   -6.6,   -9.8,  -11.6,  -12.8,  -13.4,  -12.1,  -13.4,  -15.0,  -16.5,  -17.9,  -19.4,  999.0,  999.0,  999.0,  999.0,    0.4,  999.0,    0.8,    0.8,    0.9,    0.5,    1.0,    0.5,    0.5,   -0.0,    0.4,    0.3,    0.7,    1.1,    0.6,    1.0,    0.6,    0.6,    0.4,    1.3,    0.9,    0.8,    0.9,    1.0,    1.0,    0.3
2000/11/17 12:10,  999.0,    1.0,    0.4,    0.5,   -0.0,    0.3,   -1.5,    0.8,   -0.8,   -0.7,   -0.3,    0.3,   -1.1,   -2.2,   -3.5,   -4.0,   -3.7,   -3.0,   -2.8,   -2.9,   -4.4,   -3.3,   -4.0,   -6.5,   -8.6,  -10.2,  999.0,  999.0,  999.0,  999.0,  999.0,  -37.2,  -39.0,  999.0,  999.0,  999.0,  999.0,  999.0,  999.0,  999.0,  999.0,  999.0,  999.0,    0.5,    0.9,    0.9,    0.9,    1.2,    0.7,    0.6,    0.6,    0.9,    0.7,    0.5,    0.3,    0.6,    0.7,    0.9
2000/11/17 12:20,  999.0,  999.0,    1.5,    1.6,    1.7,    1.0,   -0.4,   -0.2,    0.3,    1.0,   -0.4,   -1.2,   -1.3,   -2.9,   -4.1,   -3.8,   -3.2,   -2.1,   -3.0,   -2.3,   -3.2,   -4.2,   -2.5,   -9.0,  -16.7,  -14.9,  -14.3,  -15.6,  999.0,  999.0,  -36.1,  -37.5,  -39.8,  -41.1,  -41.5,  -42.2,  -42.2,  -41.8,  -41.8,  -42.3,  999.0,  -41.9,  -41.8,  999.0,  999.0,  999.0,  999.0,  999.0,  999.0,    0.8,  999.0,    0.9,    0.6,    0.9,    1.0,    0.4,    0.7,    0.5
2000/11/17 12:30,  999.0,   -0.2,   -0.4,   -0.5,    0.4,   -1.5,   -2.6,   -0.9,   -2.0,   -2.3,   -2.6,   -2.1,   -1.3,   -2.5,   -1.5,   -2.3,   -2.2,   -3.1,   -1.9,   -5.1,   -4.5,  999.0,   -2.5,   -6.0,  999.0,   -7.9,  -11.3,  999.0,  999.0,  999.0,  -38.6,  -39.0,  -41.4,  -41.1,  -41.8,  -41.9,  -42.3,  -41.9,  -41.8,  -42.1,  -41.7,  -41.7,  999.0,  999.0,  999.0,  999.0,  999.0,  999.0,  999.0,  999.0,  999.0,  999.0,  999.0,  999.0,  999.0,  999.0,  999.0,    0.6
2000/11/17 12:40,  999.0,    0.2,    0.3,    0.3,    0.8,    0.6,   -0.2,    0.2,    0.1,   -0.9,   -0.3,   -0.0,   -0.0,   -0.6,   -1.0,   -1.4,   -1.5,   -3.4,   -4.9,   -6.1,   -5.7,   -8.4,  -10.3,  -14.3,  999.0,  999.0,  999.0,  999.0,  999.0,  -39.3,  -39.5,  -40.8,  -41.4,  -41.8,  -41.9,  -41.7,  -41.7,  -42.0,  -42.0,  -41.3,  -41.9,  -41.9,  -42.2,  -42.0,  999.0,  999.0,  999.0,  999.0,  999.0,  999.0,  999.0,  999.0,  999.0,  999.0,  999.0,  999.0,    0.0,    0.8
2000/11/17 12:50,  999.0,    0.5,   -0.5,   -0.4,   -0.4,   -0.4,   -0.6,   -0.2,   -0.3,   -0.5,   -0.6,   -2.7,   -3.2,   -2.0,   -1.9,   -2.4,   -3.7,   -5.3,   -6.4,   -7.4,   -8.3,  -11.3,  -13.6,  -16.3,  -15.9,  -17.8,  -19.5,  999.0,  999.0,  -38.0,  -39.7,  -40.9,  -42.1,  -27.9,  -31.1,  -13.5,  -31.1,  -34.6,  -20.7,  -27.8,  -20.7,    1.0,  999.0,    0.5,    1.0,    1.0,  999.0,    0.7,  999.0,  999.0,    1.0,  999.0,  999.0,  999.0,  999.0,    0.4,    0.2,    0.7
2000/11/17 13:00,  999.0,   -0.3,   -0.4,   -0.5,   -1.1,   -1.6,   -1.8,   -1.9,   -0.5,   -0.4,    0.1,   -1.2,   -0.9,   -1.4,   -2.7,   -3.7,   -5.1,   -6.7,   -8.8,   -9.6,  -10.8,  -12.7,  -13.2,  -15.5,  -18.9,  -19.4,  -19.7,  999.0,  999.0,  999.0,  -41.5,  -41.9,  -41.3,  -42.1,  -41.6,  -41.9,  -42.0,  -42.3,  -41.6,  999.0,  999.0,  999.0,  999.0,  999.0,  999.0,  999.0,  999.0,  999.0,  999.0,  999.0,    0.5,    0.8,    0.2,  999.0,  999.0,    1.1,    0.8,    0.5
2000/11/17 13:10,  999.0,   -0.2,   -1.4,   -1.2,   -1.1,   -1.8,   -1.3,   -1.4,   -2.0,   -3.2,   -1.1,   -1.9,   -3.6,   -3.6,   -3.1,   -2.5,   -2.9,   -4.7,   -7.3,   -8.8,  -10.3,  -11.6,  -12.6,  -13.7,  -15.3,  -14.9,  999.0,  999.0,  999.0,  999.0,  -34.1,  -34.8,  -35.7,  -41.7,  -42.1,  -38.0,  -36.6,  -38.7,  -41.2,  -41.2,  -40.8,  999.0,  999.0,  -41.8,  999.0,  999.0,  999.0,    1.2,  999.0,    1.4,  999.0,    0.5,    0.4,  999.0,  999.0,    0.2,  999.0,    0.7
2000/11/17 13:20,  999.0,   -0.7,   -2.7,    1.3,    0.5,   -2.4,   -0.5,   -0.6,   -0.6,   -0.6,   -0.6,   -1.5,   -2.6,   -2.1,   -4.2,   -5.3,   -5.4,  -11.5,   -9.4,  999.0,  -14.9,  -16.3,  -19.8,  -18.7,  -20.3,  -16.5,  999.0,  999.0,  999.0,  -28.9,  999.0,  999.0,  999.0,  999.0,  -30.6,  -29.8,  999.0,  999.0,  999.0,  999.0,  999.0,  999.0,  999.0,  999.0,  999.0,  999.0,  999.0,  999.0,  999.0,  -41.6,  -41.4,  999.0,  -41.3,  -42.2,  -41.3,  -42.0,  999.0,  -41.8
2000/11/17 13:30,  999.0,   -0.4,    0.1,   -0.8,   -0.1,    1.3,    0.8,    0.3,   -1.0,   -1.0,   -0.3,   -3.2,   -3.8,   -1.3,   -1.5,   -4.1,   -5.8,   -8.0,  -10.0,  -10.7,  -15.2,  -18.5,  -21.4,  -24.7,  -24.7,  999.0,  999.0,  999.0,  999.0,    0.8,    0.6,    1.2,    0.6,  -15.0,  -30.2,  999.0,    0.3,  999.0,    0.6,    0.7,    0.6,    0.6,    0.8,    0.0,    0.5,    1.3,    0.2,  -20.6,  -21.0,    0.7,  -20.5,  -27.4,  -20.5,  -41.6,  -20.5,  -27.8,  -28.0,  -20.9
2000/11/17 13:40,  999.0,   -0.4,    0.7,    0.2,    0.1,    0.0,    0.2,    0.3,   -1.7,   -2.6,   -4.1,   -3.5,   -3.7,   -6.7,   -7.7,   -8.9,  -13.9,  -15.2,  -17.3,  -20.7,  -15.3,  -17.0,  -16.9,  -16.5,  999.0,  -24.7,  999.0,  -25.8,  999.0,  999.0,  -18.9,  999.0,  -32.9,  999.0,  999.0,  999.0,  999.0,    3.8,  -18.9,    2.0,    1.1,    0.7,  -41.6,  -41.9,  -41.9,  -41.9,  -41.8,  -42.3,  -41.9,  -41.2,  -41.8,  -41.7,  -42.1,  -42.2,  -42.0,  -42.3,  999.0,  -42.0
2000/11/17 13:50,  999.0,   -0.3,   -0.1,    0.2,    0.7,   -0.4,   -1.9,   -1.5,   -0.8,   -1.1,   -0.8,   -1.4,   -2.9,   -3.3,   -4.6,   -8.0,  -10.4,   -9.7,  -13.9,  -15.3,  -15.9,  -18.5,  -19.5,  999.0,  999.0,  999.0,  999.0,  999.0,  999.0,  999.0,  999.0,  -41.1,  -41.8,  -42.5,  -41.7,  -41.4,  -41.9,  999.0,  -41.9,  999.0,  -42.4,  -41.9,  -41.8,  -20.8,  -42.0,  -41.9,  -20.5,  -41.9,  -41.9,  -31.5,  -41.8,  -20.6,  -41.8,  -20.7,  -20.7,  -27.4,  -20.5,  -28.1
2000/11/17 14:00,  999.0,    0.1,    0.6,    0.5,    0.4,   -0.0,   -0.3,   -1.6,   -1.6,   -1.4,   -1.2,   -2.6,   -3.4,   -4.5,   -5.8,   -7.8,  -10.3,  -11.6,  -13.7,  -15.2,  -15.5,  -18.8,  -19.7,  999.0,  999.0,  999.0,  999.0,  999.0,  999.0,  999.0,  999.0,    0.5,  -28.0,  -41.7,  -27.5,  -41.7,  -41.6,  -41.8,  -20.4,  -27.6,  -41.9,  -41.9,  -41.6,  -41.5,  -34.6,  -34.9,  -41.9,  -31.4,  -31.0,  -41.5,  -34.5,  -20.4,  -41.3,  -42.0,  -41.7,  -27.7,  -34.7,  -20.7
2000/11/17 14:10,  999.0,   -0.3,   -0.0,   -0.1,    0.4,    0.1,   -1.0,   -1.8,   -1.7,   -1.9,   -2.5,   -3.4,   -4.0,   -4.5,   -6.8,   -9.5,  -12.1,  -13.5,  -16.7,  -20.2,  -21.5,  -23.2,  -25.4,  -26.3,  999.0,  999.0,  999.0,  999.0,  999.0,  -41.8,  999.0,  999.0,  -41.2,  -41.6,  -41.7,  -41.9,  -41.8,  999.0,  -41.6,  -41.6,  -41.8,  -41.8,  -41.9,  -41.7,  -41.9,  -41.7,  -42.2,  -41.9,  -41.8,  -41.9,  -41.5,  -42.0,  -42.2,  -42.1,  -41.8,  -42.0,  -41.7,  -41.8
2000/11/17 14:20,  999.0,   -0.2,   -0.0,    0.7,    0.7,    0.4,    0.0,   -0.2,  999.0,  999.0,   -0.6,   -1.0,   -1.1,   -2.1,   -2.4,   -3.3,   -5.1,   -7.7,   -8.8,  -13.6,  -14.3,  -20.1,  -22.3,  999.0,  999.0,  999.0,  999.0,  999.0,  -41.8,  999.0,  999.0,  -41.9,  -41.8,  -41.9,  -42.1,  -41.9,  -41.8,  -41.3,  -42.3,  -42.4,  -41.7,  -41.6,  -41.6,  -42.0,  -41.6,  -41.9,  -42.2,  -41.8,  -41.7,  -42.4,  -42.2,  -41.7,  -41.9,  -41.6,  -42.1,  -42.2,  -41.9,  -41.4
2000/11/17 14:30,  999.0,   -0.1,    0.7,    1.0,    0.8,    0.7,    0.1,   -0.6,   -0.2,   -1.1,   -2.5,   -3.0,   -3.4,   -4.1,   -4.4,   -6.1,   -8.0,  999.0,  999.0,  -12.8,  -14.7,  -17.9,  999.0,  999.0,  999.0,  999.0,  999.0,  999.0,  999.0,  999.0,  999.0,  999.0,  -41.8,  -41.9,  -41.6,  999.0,  -41.8,  -42.2,  -42.2,  -42.1,  -42.1,  -42.2,  -41.4,  -41.5,  -42.2,  -42.0,  -41.8,  -41.9,  -41.7,  -42.1,  -41.9,  999.0,  999.0,  -41.9,  -41.7,  999.0,  -42.3,  -42.3
2000/11/17 14:40,  999.0,   -0.6,   -0.1,    0.8,    0.0,   -0.3,   -0.4,   -0.1,   -0.3,   -1.6,   -2.0,   -2.6,   -3.5,   -3.9,   -4.3,   -5.1,   -6.6,  -10.2,  -11.7,  999.0,  999.0,  999.0,  999.0,  999.0,  -40.1,  -41.6,  -41.6,  -41.3,  -42.3,  -41.9,  -41.8,  -41.9,  -41.9,  -41.3,  -41.9,  -42.1,  -41.6,  -41.8,  -42.2,  -42.2,  -41.8,  -42.0,  -41.9,  -41.6,  -41.9,  -41.7,  -42.0,  -41.9,  -20.8,  -41.5,  -27.4,  -27.6,  -27.8,  -27.4,  -41.7,  -27.9,  -31.5,    0.7
2000/11/17 14:50,  999.0,   -0.3,   -0.2,    0.3,    0.4,   -0.1,    0.2,   -0.9,   -1.3,   -2.5,   -2.3,   -2.1,   -2.6,   -3.3,   -4.0,   -5.2,   -7.6,  -10.6,  -12.5,  999.0,  999.0,  999.0,  999.0,  -41.3,  -41.9,  -42.4,  -42.0,  -41.8,  -41.9,  -41.9,  -42.1,  -42.3,  -42.3,  -42.1,  999.0,  -42.2,  -41.8,  -42.5,  -42.2,  -41.9,  -41.8,  -41.8,  -41.9,  999.0,  -42.2,  -41.7,  -42.2,  -41.9,  -41.9,  -41.6,  -42.1,  -42.1,  -41.9,  -41.7,  -42.0,  -42.0,  -41.8,  -41.8
2000/11/17 15:00,  999.0,    0.6,   -0.3,   -0.1,    1.4,    1.4,    0.3,   -0.9,    0.0,  999.0,   -0.8,   -1.4,   -1.2,   -1.6,   -2.1,   -1.5,  -10.7,  999.0,  999.0,  999.0,  999.0,  999.0,  -38.3,  -39.4,  -40.6,  -41.7,  -41.5,  -41.7,  -41.7,  -41.5,  -41.7,  -42.2,  -41.8,  -41.7,  -41.9,  -41.8,  -41.4,  -42.3,  -42.0,  -41.8,  -41.6,  -41.7,  -41.8,  -41.8,  -42.1,  -41.7,  -41.8,  -41.9,  -41.5,  -41.5,  -41.6,  -42.0,  -41.4,  -42.0,  -41.8,  -41.9,  -41.7,  -41.9
2000/11/17 15:10,  999.0,   -0.2,   -0.3,    0.4,    1.1,    1.3,   -1.5,   -1.7,    0.2,    0.7,   -2.2,   -2.1,   -2.5,   -2.4,   -2.8,  999.0,  999.0,  -10.0,  -10.8,  999.0,  999.0,  999.0,  -35.4,  -37.8,  -35.6,  -40.0,  -30.1,  -41.4,  -31.1,  -34.8,  -34.7,  -42.2,  -41.9,  -41.7,  -41.6,  -34.8,  -27.7,  -42.0,  -27.8,  -27.3,  -20.4,  -34.4,  -27.8,  -42.6,  -42.5,  -41.8,  -42.2,  -41.8,  -42.1,  -41.3,  -41.9,  -42.0,  -42.1,  -41.5,  -41.9,  -27.8,  -27.5,  -27.7
2000/11/17 15:20,  999.0,    0.2,   -0.3,    0.6,    0.4,   -0.9,    0.1,   -0.7,    0.0,   -1.8,   -1.8,   -2.4,   -2.7,   -1.6,   -5.8,   -5.7,   -8.2,  999.0,  999.0,  999.0,  999.0,  999.0,  999.0,  999.0,  999.0,  -39.5,  -40.9,  -41.7,  -42.3,  -41.0,  -42.0,  -41.9,  -41.3,  -41.7,  -42.1,  -41.5,  -41.9,  -41.8,  -42.3,  -41.6,  -41.7,  -41.3,  -42.4,  -41.6,  -42.0,  -42.3,  -41.8,  -41.6,  -42.0,  -41.9,  -41.9,  -41.5,  -41.8,  -41.7,  -41.6,  -41.5,  -41.8,  -41.5
2000/11/17 15:30,  999.0,  999.0,   -0.6,  999.0,   -0.5,   -0.4,   -0.3,   -1.9,   -1.5,   -2.6,   -1.4,   -1.7,  999.0,   -2.5,   -4.7,   -5.6,  999.0,  999.0,  999.0,  999.0,  999.0,  999.0,  -31.0,  -42.2,  -39.3,  -37.4,  -34.0,  -39.0,  999.0,  999.0,  -40.9,  -41.0,  -40.8,  -41.5,  -41.7,  -42.0,  -42.1,  -42.3,  -42.2,  -42.5,  -42.1,  -41.9,  -41.9,  -41.9,  -41.8,  -41.7,  -42.0,  -41.9,  -41.7,  -41.7,  -41.9,  -41.3,  -41.7,  -41.6,  -41.9,  -41.8,  -42.4,  -42.2
2000/11/17 15:40,  999.0,   -1.0,    0.3,    0.1,    0.7,    1.0,   -0.1,   -0.7,  999.0,  999.0,   -1.3,   -2.1,   -3.0,   -3.2,   -3.1,   -6.2,  999.0,  999.0,   -7.7,  999.0,  999.0,  999.0,  -29.1,  -30.6,  999.0,  -30.6,  -10.4,   12.4,  -12.3,  -37.5,  999.0,  -39.1,  -40.3,  999.0,    8.6,  999.0,    7.7,  -17.3,    6.3,  -41.3,    5.7,  -41.7,  999.0,  -41.5,  -41.8,  999.0,  -41.4,  -41.3,  -41.9,  999.0,  -41.7,  -41.5,  -41.8,    0.8,    0.7,  -20.2,  -20.4,  -13.6
2000/11/17 15:50,  999.0,    0.5,    1.1,    0.6,    0.8,   -0.2,    0.4,  999.0,   -0.7,   -3.5,   -0.4,   -1.3,   -2.2,   -2.5,   -3.2,  999.0,  999.0,  999.0,  999.0,  999.0,  999.0,  999.0,  999.0,  -26.8,  999.0,  -27.9,   13.9,   13.5,   12.8,   11.3,  999.0,   10.7,  999.0,  999.0,    8.3,  999.0,  999.0,  999.0,  999.0,  999.0,  999.0,  999.0,  999.0,    3.3,  999.0,    1.5,  -19.9,    0.8,  -20.9,    0.8,  -21.0,  -20.9,  999.0,    0.6,    1.0,  -42.5,    0.6,    0.3
2000/11/17 16:00,  999.0,    0.1,    0.3,    1.4,    1.9,    1.0,    0.6,    0.4,    0.8,  999.0,  999.0,  999.0,  999.0,  999.0,  999.0,  999.0,  999.0,  999.0,  999.0,  999.0,  999.0,  999.0,  999.0,  999.0,  999.0,  999.0,  999.0,  999.0,  999.0,  999.0,  999.0,  999.0,    8.0,    4.9,  999.0,    0.6,    1.0,    2.4,    3.7,    2.5,    1.5,    1.8,    1.4,    1.5,    0.8,    0.4,    0.9,    0.6,    0.5,    0.3,    0.4,    0.8,    0.3,    0.7,    0.6,    0.3,    0.7,    0.3
2000/11/17 16:10,  999.0,    1.2,   -0.4,    0.3,    0.6,    0.7,    0.5,   -0.3,   -0.6,    0.1,    1.1,  999.0,  999.0,  999.0,  999.0,  999.0,  999.0,  999.0,  999.0,  999.0,  999.0,  999.0,  999.0,  999.0,    8.0,  999.0,    5.8,  999.0,    3.2,    1.0,    1.0,    0.5,  999.0,    1.5,    0.3,    0.4,    0.3,    0.6,    0.6,    0.7,    1.0,    0.9,    0.7,    0.6,    0.6,    1.1,    0.5,    0.7,    0.2,    0.8,    0.3,    1.0,    0.9,    0.7,    0.9,    1.0,    0.7,    0.8
2000/11/17 16:20,  999.0,    1.5,    1.3,   -0.3,    0.6,   -0.7,    0.5,  999.0,    0.9,    0.4,    0.1,   -1.8,   -2.4,  999.0,  999.0,  999.0,  999.0,  999.0,  999.0,  999.0,  999.0,  999.0,    9.0,    7.5,    5.5,    5.1,    3.2,    2.7,    1.2,    0.4,   -0.1,    0.5,    0.7,    0.9,    0.7,    0.2,   -0.0,    0.3,    0.6,    0.4,    0.6,   -0.1,   -0.2,    0.3,    0.2,    0.1,    0.6,    0.1,    0.7,    0.9,    1.0,    0.7,    0.5,    0.6,    1.2,    0.4,    0.4,    1.1
2000/11/17 16:30,  999.0,    1.3,    0.7,    1.5,    0.8,    0.9,   -0.0,   -0.0,   -0.4,  999.0,  999.0,  999.0,  999.0,  999.0,  999.0,  999.0,  999.0,  999.0,  999.0,  999.0,  999.0,   12.0,    9.2,    6.6,    5.9,    4.5,    1.9,    1.1,    1.0,    0.5,    0.5,    1.0,    1.4,    0.8,  999.0,    0.9,    0.4,    0.8,    0.2,    0.4,    1.0,    0.8,    0.5,    0.5,    0.9,    0.6,    0.8,    0.4,    0.8,    0.7,    0.9,    0.5,    0.5,    0.5,    0.6,    1.0,    0.8,    1.0
2000/11/17 16:40,  999.0,    0.7,    1.4,    1.3,    2.0,    1.2,    0.7,  999.0,  999.0,  999.0,  999.0,  999.0,   21.1,   20.5,   21.8,   19.1,  999.0,   15.7,  999.0,   11.4,   11.1,    9.4,    8.2,    6.1,    5.0,    3.1,    1.5,    1.0,    0.2,    0.7,    1.2,    0.7,    0.8,    1.0,    0.5,    0.6,    0.6,    0.7,    0.4,  999.0,    0.9,    1.0,    0.6,    0.6,    0.7,    1.2,    0.5,    0.9,    0.7,    0.7,    0.8,    0.9,    0.2,    0.8,    0.2,    1.0,    0.6,    0.9
2000/11/17 16:50,  999.0,    2.3,    0.8,    0.7,    0.7,    0.7,  999.0,  999.0,  999.0,  999.0,   22.0,   21.5,   21.2,   20.8,   19.8,   19.3,   18.0,   17.4,   15.4,   13.1,  999.0,    9.6,    8.6,    5.4,    5.8,    2.8,    0.5,    1.0,  999.0,    0.8,    0.8,    1.0,    0.8,    0.6,    0.7,    1.0,    0.7,    0.8,    0.6,    0.8,    0.5,    0.6,    0.5,    0.7,    0.5,    0.7,    0.5,    0.9,    0.8,    0.6,    0.7,    0.9,    0.5,    0.8,    0.2,    1.3,    1.0,    1.0
2000/11/17 17:00,  999.0,    2.5,    1.2,    1.1,    0.8,    0.0,    0.1,   10.2,   10.9,   -0.7,   15.0,   19.9,    9.3,   20.2,   21.0,   20.5,  999.0,   16.8,   14.0,  999.0,    8.7,    7.0,    5.6,    1.6,    1.4,    0.7,    1.2,    0.1,  -20.8,    0.8,   -6.6,  -10.1,  -20.9,  -41.8,  -20.6,    0.6,  -20.4,  -10.0,   -6.5,   -6.8,    0.9,  -20.9,    0.4,    0.8,  -20.7,  -10.2,   -7.2,   -0.0,    0.8,    0.7,    0.7,    1.0,    0.4,    0.8,    0.4,    0.8,    1.0,   -0.2
2000/11/17 17:10,  999.0,    0.5,    0.1,    0.6,   -0.2,  999.0,  999.0,  999.0,  999.0,    0.4,   -0.1,   -2.3,    9.0,   21.5,   21.4,   21.9,   19.2,   17.1,  999.0,   13.3,   10.4,  999.0,    7.4,    6.1,    4.4,    1.9,    1.2,    0.9,    0.8,    1.1,    0.8,    0.4,    0.4,    1.0,  999.0,    0.7,    0.9,    1.1,    0.6,    0.3,    0.6,    0.6,    0.6,    0.5,    1.0,    0.2,    1.2,    0.6,    0.6,    0.6,    0.6,    0.8,    0.7,    0.5,    0.9,    0.6,    0.7,    0.4
2000/11/17 17:20,  999.0,    3.9,  999.0,    2.1,  999.0,    1.0,    0.8,  999.0,  999.0,  999.0,   11.0,  999.0,  999.0,  999.0,  999.0,  999.0,  999.0,  999.0,  999.0,  999.0,  999.0,  999.0,  999.0,  999.0,  999.0,  999.0,  999.0,  -18.4,  999.0,  999.0,  999.0,  999.0,  999.0,  999.0,  999.0,  999.0,  999.0,  999.0,  999.0,  999.0,  999.0,  999.0,  -20.5,  -20.7,  -20.7,  999.0,  -20.5,  999.0,   -8.9,  -10.0,   -3.9,   -6.2,   -6.2,    1.0,   -6.1,    0.8,    0.8,  -13.6
2000/11/17 17:30,  999.0,  999.0,  999.0,    2.3,    0.8,  999.0,  999.0,  999.0,  999.0,  999.0,  999.0,  999.0,  999.0,  999.0,  999.0,  999.0,  999.0,  999.0,  999.0,  999.0,  999.0,  999.0,  999.0,  999.0,  999.0,  999.0,  999.0,  999.0,  999.0,  999.0,  999.0,  999.0,  999.0,  999.0,  999.0,  999.0,  999.0,  999.0,  999.0,  999.0,  999.0,  999.0,  999.0,  999.0,  999.0,  999.0,  999.0,  999.0,    1.9,    1.6,    1.4,  -41.5,  999.0,    0.3,  -42.4,  999.0,  999.0,  999.0
2000/11/17 17:40,  999.0,  999.0,  999.0,    2.8,    3.2,    1.4,    1.4,    0.5,   -0.5,   -1.1,   -1.8,   -2.6,   -3.1,   -4.2,   -4.1,   -4.8,   -4.0,   -3.4,   -3.1,   -4.1,   -5.0,   -6.1,   -8.0,   -8.9,   -9.1,   -8.6,   -7.8,   -7.3,   -7.6,   -8.9,   -9.8,  -11.2,  -11.4,  -13.6,  -12.8,  -12.5,  -12.1,  -12.3,  -12.6,  -11.2,  -11.5,  -11.4,  -10.2,   -8.9,   -7.7,   -7.7,   -8.1,   -8.4,   -8.9,   -8.5,   -7.5,   -6.3,   -4.8,   -4.4,   10.8,   -3.3,   -2.9,   -1.9
2000/11/17 17:50,  999.0,    3.0,    2.1,    2.0,    0.8,    0.4,    1.9,    0.5,    0.2,   -0.5,   -0.9,   -0.7,   -0.8,   -0.5,   -0.7,   -1.2,   -1.6,   -1.8,   -2.3,   -2.8,   -3.3,   -4.0,   -5.0,   -8.5,   -9.0,   -8.3,   -7.6,   -7.3,   -7.3,   -8.0,   -7.3,   -9.5,   -8.8,   -8.4,   -8.3,   -7.3,   -7.9,   -8.3,   -7.8,   -7.0,   -7.9,   -5.7,   -5.2,   -5.6,   -6.1,   -6.3,   -7.2,   -7.7,   -8.2,   -7.7,   -6.0,   -9.0,   -6.6,   -7.6,   -6.3,   -3.4,   -4.0,   -4.0
2000/11/17 18:00,  999.0,    3.0,    2.6,    2.0,    1.5,    0.4,   -0.0,   -0.6,   -0.6,   -0.5,   -0.3,    0.0,   -0.0,   -0.0,   -0.5,   -0.8,   -0.6,   -1.8,   -3.0,   -2.8,   -3.0,   -3.4,   -4.4,   -5.7,   -6.3,   -6.6,   -6.8,   -6.3,   -5.9,   -6.2,   -7.6,   -8.4,   -8.4,   -8.3,   -7.0,   -6.4,   -5.8,   -5.3,   -5.6,   -6.5,   -7.1,   -8.1,   -8.8,   -8.1,   -7.6,   -7.4,   -7.9,   -8.0,   -8.4,   -9.5,  -10.0,   -9.0,   -9.6,   -9.3,   -9.4,  -11.0,  -10.2,  -10.8
2000/11/17 18:10,  999.0,    1.8,    2.2,    3.5,    2.5,    3.7,    2.9,    0.5,    0.7,    0.2,   -0.8,    1.0,    2.1,    0.5,    0.3,   -0.7,   -1.3,   -1.5,   -1.3,   -1.8,   -2.3,   -2.4,   -3.3,   -5.0,   -5.2,   -5.7,   -5.9,   -5.3,   -3.9,   -3.3,   -2.9,   -3.1,   -3.3,   -4.4,   -5.7,   -6.7,   -6.4,   -6.2,   -4.9,   -3.8,   -2.7,   -2.1,   -2.4,   -3.1,   -3.3,   -3.6,   -3.6,   -3.2,   -3.4,   -3.8,   -3.0,   -1.4,   -0.5,   -1.2,   -1.2,   -0.3,   -0.6,   -1.5
2000/11/17 18:20,  999.0,    2.6,    1.9,    1.4,    0.6,   -0.3,   -0.8,   -0.9,   -0.7,   -0.5,   -0.5,   -0.3,   -0.8,   -1.5,   -3.0,   -3.0,   -2.7,   -1.2,   -1.9,   -2.4,   -3.1,   -4.5,   -3.8,   -2.6,   -1.8,   -2.1,   -1.7,   -2.2,   -3.3,   -3.3,   -3.8,   -2.7,   -4.2,   -6.3,   -6.7,   -5.3,   -6.7,   -6.5,   -6.7,   -7.1,   -7.2,   -7.2,   -8.4,   -8.3,   -7.3,   -6.2,   -5.7,   -5.3,   -5.5,   -5.2,   -4.8,   -4.2,   -3.5,   -3.0,   -2.5,   -1.7,   -2.1,   -1.3
2000/11/17 18:30,  999.0,   -4.2,   -1.3,    0.8,   -0.3,    0.3,    0.6,   -0.1,    0.1,    0.2,    0.3,   -1.0,    2.3,    3.0,    3.8,    4.3,    5.0,    5.3,    5.8,    4.3,    7.1,    7.2,  999.0,  -12.8,  -13.3,  -17.8,  -18.3,  -11.7,  -11.4,  -10.5,   -8.8,   -7.7,   -6.1,   -7.0,   -7.8,   -9.0,   -9.7,  -13.1,  -12.9,  -11.8,  -10.0,   -6.8,   -9.0,   -7.6,   -7.9,   -7.3,   -8.2,   -9.3,  -10.0,   -8.3,   -6.6,   -4.9,   -4.4,   -2.7,   -1.0,    0.7,    1.6,    3.1
2000/11/17 18:40,  999.0,  999.0,  -13.5,   -1.5,    3.5,    3.8,    4.1,    3.7,    3.6,   -1.6,   -1.3,   -2.1,   -0.7,    2.2,    9.0,    6.3,    6.3,    3.3,    2.5,    1.0,    3.6,   -1.3,   -0.9,   -3.7,   -2.6,   -1.0,   -2.8,   -2.9,   -3.3,   -3.5,   -1.6,   -0.7,   -0.2,   -0.4,   -1.5,   -2.1,   -1.7,   -1.6,   -3.0,   -2.8,   -2.4,   -2.8,   -3.6,   -3.7,   -3.4,   -3.3,   -3.6,   -5.8,   -4.2,   -1.4,    0.7,    4.7,    4.1,    3.5,    3.9,    1.3,   -0.1,   -0.7
2000/11/17 18:50,  999.0,   -0.1,    1.9,   -2.5,  999.0,   -9.6,   -0.0,   -0.8,   -3.5,   -3.4,   -4.0,  999.0,  -14.6,  -13.9,  999.0,  999.0,  -14.1,  -13.7,  -14.3,  -13.8,  -13.6,  -13.6,  -13.5,  -13.1,  -16.9,  -21.8,  -20.1,  -21.1,  -20.3,  -21.8,  -21.2,  -21.8,  -22.8,  -22.4,  -22.0,  -11.1,  -12.9,   -1.1,  999.0,  999.0,  -23.2,  -12.3,  -17.2,  -13.1,   -4.2,   -1.7,   -2.1,   -2.0,   -2.2,   -1.9,   -0.8,    0.5,    0.9,    1.3,    1.0,    0.3,   -0.9,   -1.4
2000/11/17 19:00,  999.0,  -19.0,  -10.3,   -5.7,   -9.2,   -1.2,   -7.1,   -6.5,   -6.2,   -9.5,   -5.5,   -9.5,   -6.2,   -2.3,    1.1,    0.2,    0.0,   -1.4,   -5.5,   -7.1,   -7.0,   -8.8,   -7.8,   -7.3,   -8.5,   -9.0,   -9.7,  -10.5,  -10.7,  -10.1,   -9.3,   -8.1,   -9.5,   -9.1,   -8.9,   -8.5,   -8.8,   -8.8,   -9.4,   -8.9,  -11.9,  -13.2,   -6.2,   -4.9,   -3.6,   -2.8,   -2.5,   -2.1,   -1.6,   -1.1,   -1.2,   -1.1,   -0.7,   -0.5,   -1.3,   -2.1,   -2.1,   -2.3
2000/11/17 19:10,  999.0,  -14.9,  -13.0,  -10.7,   -9.3,   -8.7,  -14.5,  -17.8,  -15.8,  -14.0,  -16.7,  -15.9,  -12.8,   -7.9,   -3.6,   -3.0,   -3.0,   -3.0,   -3.5,   -4.0,   -4.9,   -5.3,   -5.0,   -5.5,   -6.4,   -6.7,   -7.7,   -8.8,   -9.1,   -9.1,   -9.6,   -9.2,   -9.7,  -10.3,  -10.3,  -10.3,  -10.5,  -10.7,  -10.7,  -10.7,  -10.5,   -8.4,   -1.8,   -5.2,   -5.2,   -4.9,   -4.4,   -3.3,   -1.8,   -0.2,    1.2,    2.5,    1.4,   -1.4,   -4.5,   -6.0,   -6.9,   -7.6
2000/11/17 19:20,  999.0,   -8.4,   -1.1,    0.2,    0.6,    0.8,    0.3,   -0.6,   -1.8,   -3.1,   -3.2,   -2.5,   -2.5,   -2.5,   -2.1,   -2.2,   -2.7,   -3.9,   -4.4,   -5.0,   -5.6,   -5.5,   -5.8,   -5.8,   -6.4,   -7.2,   -7.2,   -7.5,   -7.3,   -7.3,   -6.9,   -7.2,   -7.1,   -6.4,   -5.8,   -6.5,   -7.2,   -6.9,   -7.0,   -7.5,   -5.2,   -3.7,   -2.2,   -3.5,   -4.5,   -4.5,   -3.7,   -4.1,   -3.5,   -3.1,   -1.5,   -1.6,   -2.7,   -4.1,   -5.6,   -5.8,   -7.2,  999.0
2000/11/17 19:30,  999.0,    4.0,   -2.1,  999.0,    2.5,   -4.8,   -0.1,    1.6,   -0.7,   -1.3,   -1.9,   -2.5,   -2.7,   -2.5,   -3.1,   -4.5,   -4.8,   -5.1,   -5.6,   -6.1,   -5.6,   -4.8,   -4.6,   -4.7,   -5.2,   -4.8,   -2.9,   -2.5,   -3.5,   -3.5,  999.0,   -5.1,   -3.8,  999.0,  999.0,  999.0,  999.0,  999.0,  999.0,   -0.2,  999.0,  999.0,  999.0,  999.0,  999.0,  999.0,  999.0,  999.0,  999.0,  999.0,  999.0,  999.0,  999.0,  999.0,  999.0,  999.0,  999.0,  999.0
2000/11/17 19:40,  999.0,   -2.0,  999.0,  999.0,  999.0,   -7.6,   -2.6,    0.5,   -0.6,    0.4,  999.0,  999.0,  999.0,   -1.4,   -2.7,    1.6,  999.0,  999.0,  999.0,  999.0,  999.0,  999.0,  999.0,  999.0,  999.0,  999.0,  999.0,  999.0,  999.0,  999.0,   -1.1,  999.0,  -17.8,  999.0,  -21.6,  -17.0,  999.0,  999.0,  999.0,  999.0,  999.0,  999.0,  999.0,  999.0,  999.0,  -15.4,  999.0,  999.0,  999.0,  999.0,  999.0,  999.0,  999.0,  999.0,  -13.0,  999.0,  999.0,  999.0
2000/11/17 19:50,  999.0,  999.0,  999.0,  999.0,  999.0,   -1.0,   -0.6,   -1.2,   -1.4,    0.1,   -0.3,    0.1,   -1.4,   -1.5,   -2.2,   -2.7,   -2.4,  999.0,  999.0,  999.0,  999.0,  999.0,  999.0,  -15.9,  -14.8,  999.0,  -19.3,  -13.1,  -13.4,  -14.6,  -14.9,  -13.7,  -15.4,  -14.2,  -11.5,  -31.1,  -30.5,  -29.8,  999.0,  -28.0,  -24.1,  999.0,  999.0,   -2.6,  -13.3,  -11.5,   -5.1,  999.0,   -3.9,   -4.7,   -6.0,   -6.8,   -6.9,   -7.7,   -7.6,   -7.6,   -6.4,   -7.1
2000/11/17 20:00,  999.0,  999.0,  999.0,  999.0,   -0.9,    1.5,   -3.1,   -3.4,   -3.4,   -3.9,   -1.0,    1.6,   -2.7,   -2.1,   -2.7,   -3.3,   -3.0,  999.0,  999.0,  999.0,  999.0,  -23.3,  -17.4,  -10.8,  -11.5,   -3.8,   -3.4,   -8.4,  -10.1,   -9.5,    0.2,   -5.1,   -9.6,   -0.9,  999.0,   -1.2,   -1.1,   -1.8,   -2.4,   -7.3,   -7.7,  -11.3,   -4.5,  999.0,  999.0,   -5.6,   -1.6,   -2.6,   -3.5,  999.0,  999.0,  999.0,  999.0,  999.0,  999.0,  999.0,   -4.1,   -4.2
2000/11/17 20:10,  999.0,  999.0,  999.0,  999.0,  999.0,   -1.0,   -1.3,   -0.6,    0.3,   -4.5,   -2.1,   -0.9,   -4.3,   -0.9,   -7.3,  -11.5,  -10.1,  999.0,  -17.1,  -13.3,  999.0,  999.0,  999.0,  999.0,   -1.1,  999.0,  -15.1,  -13.8,  -27.1,  999.0,  -11.5,  -11.5,    0.8,  -12.1,   -7.9,   -7.6,  -21.3,  -21.4,  -11.3,  -10.6,   -1.4,  -10.6,   -7.6,  -10.3,  -10.8,   -8.6,  999.0,  999.0,  999.0,   -8.8,  -15.4,   -7.0,  -10.7,   -0.1,   -3.8,   -3.4,   -4.3,   -5.9
2000/11/17 20:20,  999.0,  999.0,  999.0,  -17.0,  -15.5,  -13.7,   -9.7,   -6.1,   -3.1,   -1.7,   -2.2,   -1.0,    1.5,    1.1,   -3.1,   -3.1,   -3.2,   -3.8,   -3.9,   -4.0,   -3.5,   -2.9,   -2.2,   -1.6,   -0.9,   -3.8,   -6.7,   -7.6,   -3.5,   -2.7,   -2.2,   -3.0,   -2.6,   -2.8,   -3.4,   -3.7,   -4.6,   -4.4,   -6.6,   -4.0,   -7.0,   -3.3,   -6.2,   -2.3,  999.0,  -10.9,   -0.4,  999.0,  999.0,   -9.2,   -5.6,   -5.9,    1.2,   -1.3,   -2.9,   -3.5,   -4.7,   -5.9
2000/11/17 20:30,  999.0,   -5.9,   -8.4,   -7.7,   -6.4,   -4.4,   -2.8,   -2.1,   -2.0,   -1.4,   -1.7,   -2.1,   -4.1,   -5.3,   -4.8,   -5.7,   -5.6,   -4.6,   -3.3,   -2.0,   -1.3,   -0.8,   -0.1,    1.2,    0.7,   -0.7,   -3.2,   -7.0,   -8.2,   -3.4,   -3.7,   -3.5,   -3.0,   -3.5,   -3.5,   -3.6,   -4.0,   -4.6,   -4.9,   -5.5,   -5.2,   -5.0,   -4.8,   -3.4,   -2.9,   -3.2,   -3.4,   -3.1,   -3.9,   -3.1,   -5.5,   -5.1,   -4.6,   -5.2,   -6.4,   -7.7,   -7.1,   -6.7
2000/11/17 20:40,  999.0,   -0.8,    1.1,    2.6,    2.2,    2.3,    2.4,    2.1,    1.3,    1.0,    2.1,    3.8,    2.9,    1.0,    1.0,    0.5,   -0.8,    0.0,   -2.1,   -1.6,   -1.5,   -1.8,   -1.5,   -3.4,   -3.3,   -3.3,   -2.6,   -1.8,   -4.1,   -4.1,  999.0,  999.0,  999.0,  999.0,  999.0,   -7.2,  999.0,   -3.8,   -3.5,   -0.0,    0.2,   -3.6,  999.0,  999.0,  999.0,  -13.3,  999.0,   -2.5,   -5.5,   -8.1,   -8.0,   -8.1,   -8.2,   -8.2,   -8.9,   -9.2,   -9.6,  999.0
2000/11/17 20:50,  999.0,   -6.4,  999.0,  999.0,    7.9,    7.6,    6.1,    5.2,    3.1,    2.2,   -2.7,   -2.9,  999.0,  999.0,  999.0,  999.0,  999.0,  999.0,  999.0,  999.0,  999.0,  999.0,  999.0,  999.0,  999.0,  999.0,  999.0,  999.0,  999.0,  999.0,  999.0,  999.0,  999.0,  999.0,  999.0,  999.0,  999.0,  999.0,  999.0,  999.0,  999.0,  999.0,  999.0,  999.0,  999.0,  999.0,  999.0,  999.0,  999.0,  999.0,  999.0,  999.0,  999.0,  999.0,  999.0,  999.0,  999.0,  999.0
2000/11/17 21:00,  999.0,    3.5,  999.0,   -2.0,   -0.8,   -1.3,   -1.7,   -2.2,    0.5,    0.1,   -1.3,   -2.7,   -3.4,   -4.1,   -2.8,   -4.3,   -5.4,   -6.4,  999.0,  999.0,  999.0,   -6.6,  999.0,   -6.0,  999.0,  999.0,  999.0,  999.0,  -13.3,  999.0,  999.0,  999.0,  999.0,  999.0,  999.0,  999.0,  999.0,  999.0,  999.0,  999.0,  999.0,  999.0,  999.0,  999.0,  -40.1,  -42.0,  999.0,  999.0,  -42.6,  999.0,  999.0,  999.0,  -41.7,  999.0,  999.0,  -41.7,  999.0,  999.0
2000/11/17 21:10,  999.0,    8.2,    1.6,    3.4,   -0.7,   -1.0,   -1.0,   -0.3,   -2.6,   -2.3,   -2.3,   -2.8,  999.0,   -3.4,   -2.7,   -1.0,   -4.2,   -3.4,  999.0,   -5.1,   -6.5,   -7.6,   -8.9,   -7.5,   -8.4,   -8.1,  -11.5,  -12.6,  999.0,  999.0,  999.0,  999.0,  999.0,  999.0,  999.0,  999.0,  999.0,  999.0,  999.0,  999.0,  999.0,  999.0,  999.0,  -40.9,  999.0,  999.0,  999.0,  -41.3,  -42.2,  -41.4,  999.0,  -42.3,  -42.0,  -42.1,  -42.1,  -41.5,  -41.8,  -41.9
2000/11/17 21:20,  999.0,  999.0,  999.0,  999.0,  999.0,  999.0,    3.6,    2.6,   -1.1,   -3.1,   -1.7,   -2.0,   -1.0,   -1.6,   -2.2,   -2.4,   -1.4,   -3.9,  999.0,   -3.0,  999.0,   -4.7,   -4.9,  -10.1,   -7.3,  999.0,  999.0,  -12.6,  -17.8,  999.0,  999.0,  999.0,  999.0,  999.0,  999.0,  999.0,  999.0,  999.0,  999.0,  999.0,  999.0,  999.0,  999.0,  999.0,  999.0,  999.0,  -40.5,  -41.0,  -41.3,  999.0,  -42.3,  -42.0,  999.0,  -41.7,  -41.7,  999.0,  -41.7,  -41.9
2000/11/17 21:30,  999.0,  999.0,  999.0,   -1.8,   -2.9,   -3.3,   -7.2,   -0.8,   -1.6,   -1.6,   -2.2,   -2.7,   -3.4,   -2.5,   -2.4,   -2.1,   -2.8,   -3.3,   -4.3,   -5.1,   -6.1,   -6.0,   -5.9,   -4.8,   -9.4,  999.0,  -17.2,  -18.5,  -18.3,  -19.6,  999.0,  999.0,  999.0,  999.0,  999.0,  999.0,  999.0,  999.0,  999.0,  999.0,  999.0,  999.0,  999.0,  999.0,  -41.9,  -41.4,  -41.6,  -41.5,  -41.4,  999.0,  -41.7,  -42.0,  -41.3,  -42.5,  999.0,  -42.0,  -41.9,  999.0
2000/11/17 21:40,  999.0,    8.0,    1.1,   -5.6,   -5.2,   -3.3,   -1.8,   -1.5,   -2.3,   -2.0,   -2.0,   -2.6,   -3.5,   -3.5,   -3.4,   -3.6,   -4.3,   -4.2,   -5.9,  999.0,   -5.4,   -2.9,   -5.5,  999.0,   -6.6,   -6.4,   -5.7,  -13.4,  999.0,  999.0,  999.0,  999.0,  999.0,  999.0,  999.0,  999.0,  999.0,  999.0,  999.0,  999.0,  999.0,  -41.6,  -41.7,  -42.2,  -42.0,  -43.0,  999.0,  -41.4,  -42.0,  -41.7,  -42.0,  -41.2,  -42.2,  -42.0,  -41.8,  999.0,  999.0,  -42.6
2000/11/17 21:50,  999.0,  999.0,    3.8,  999.0,  999.0,   -4.9,    0.5,   -1.2,   -1.3,   -2.9,   -2.3,  999.0,   -0.6,  999.0,  999.0,   -3.2,   -3.8,   -4.5,  999.0,   -5.3,   -7.7,   -9.0,  -10.4,  999.0,  999.0,  999.0,  999.0,  999.0,  999.0,  999.0,  999.0,  999.0,  -37.8,  -38.6,  999.0,  -41.5,  -40.5,  -41.4,  999.0,  -41.8,  -41.7,  -41.6,  -40.9,  -41.7,  -41.4,  -41.7,  -41.5,  -41.6,  -41.4,  -42.2,  -42.0,  -41.7,  -41.5,  -41.5,  -42.2,  999.0,  999.0,  999.0
2000/11/17 22:00,  999.0,    1.5,    1.9,   -1.2,    1.2,    2.9,    0.5,  999.0,    0.1,   -1.5,   -1.5,   -0.7,   -2.1,   -2.5,  999.0,   -4.9,   -3.7,   -4.0,   -4.9,   -5.7,   -8.9,  999.0,  999.0,  -11.1,  999.0,  999.0,  999.0,  999.0,  999.0,  999.0,  999.0,  -36.6,  -37.1,  999.0,  999.0,  -41.3,  -40.6,  -40.8,  -41.3,  -41.8,  -41.6,  -41.9,  999.0,  999.0,  999.0,  -41.3,  -41.7,  -41.4,  -41.6,  -41.8,  -41.6,  -41.9,  -41.0,  999.0,  -41.4,  999.0,  999.0,  999.0
2000/11/17 22:10,  999.0,  999.0,    3.2,  999.0,  999.0,   -1.2,  999.0,   -3.0,   -0.6,    1.0,   -1.1,   -3.9,   -4.0,   -2.7,   -2.7,   -2.3,   -2.7,   -3.4,   -3.5,   -4.3,  999.0,  999.0,  999.0,  999.0,  999.0,  999.0,  999.0,  999.0,  999.0,  999.0,  999.0,  999.0,  -35.8,  -37.5,  -39.6,  -39.9,  -41.6,  -41.1,  -41.6,  999.0,  -41.9,  -41.5,  -41.7,  -42.2,  -42.2,  -42.1,  -42.3,  -41.9,  -42.3,  -41.7,  999.0,  999.0,  -41.7,  -42.2,  -42.2,  999.0,  999.0,  999.0
2000/11/17 22:20,  999.0,    1.8,    4.5,    4.4,  999.0,   -1.2,    0.7,   -1.3,   -2.4,   -1.3,   -2.3,   -2.5,   -2.5,   -3.0,   -3.1,   -2.6,   -3.7,   -6.1,   -5.4,   -6.2,  999.0,  999.0,  999.0,  999.0,  999.0,  999.0,  999.0,  999.0,  999.0,  999.0,  -33.6,  -36.0,  -36.9,  -38.3,  -38.6,  999.0,  -41.6,  999.0,  -41.6,  -41.9,  -41.7,  -43.6,  -41.2,  -41.3,  -41.6,  -41.9,  999.0,  -41.8,  -41.7,  -41.9,  -42.6,  -42.3,  -42.7,  999.0,  -41.8,  999.0,  999.0,  999.0
2000/11/17 22:30,  999.0,  999.0,  999.0,  999.0,  999.0,  999.0,   -0.3,   -1.9,    0.4,   -0.9,   -2.4,   -2.9,   -3.3,   -2.1,   -1.9,  999.0,  999.0,  999.0,  999.0,  999.0,  999.0,  999.0,   -6.1,  999.0,  999.0,  999.0,  999.0,  999.0,  999.0,  999.0,  999.0,  999.0,  999.0,  999.0,  -38.2,  999.0,  -40.5,  -40.8,  999.0,  999.0,  -41.4,  -42.1,  999.0,  999.0,  999.0,  -42.1,  999.0,  999.0,  999.0,  999.0,  999.0,  999.0,  -41.7,  -42.1,  -41.4,  999.0,  999.0,  999.0
2000/11/17 22:40,  999.0,  999.0,   -5.6,   -6.6,   -9.4,   -0.8,  999.0,   -1.7,  999.0,   -0.8,   -1.0,   -6.6,   -7.8,   -8.5,  999.0,   -2.7,  999.0,  999.0,  999.0,  999.0,  999.0,  999.0,  999.0,  999.0,  999.0,  999.0,  999.0,  999.0,  999.0,  999.0,  999.0,  999.0,  999.0,  999.0,  999.0,  999.0,  999.0,  999.0,  999.0,  999.0,  999.0,  -41.6,  -42.5,  999.0,  -41.1,  999.0,  999.0,  999.0,  999.0,  -40.7,  999.0,  -40.8,  -40.3,  999.0,  -41.3,  999.0,  999.0,  999.0
2000/11/17 22:50,  999.0,   -0.4,   -1.9,  999.0,  999.0,   -3.8,   -1.4,   -2.5,    0.7,  999.0,  999.0,   -1.8,   -3.0,   -2.3,   -2.2,  999.0,   -5.4,   -3.8,  999.0,  999.0,  999.0,  999.0,   -8.8,  -10.2,  -13.5,   -7.4,  999.0,  999.0,  999.0,  999.0,  999.0,  999.0,  999.0,  999.0,  999.0,  999.0,  999.0,  999.0,  999.0,  999.0,  999.0,  999.0,  999.0,  999.0,  999.0,  999.0,  999.0,  999.0,  999.0,  999.0,  999.0,  999.0,  999.0,  999.0,  999.0,  999.0,  999.0,  999.0
2000/11/17 23:00,  999.0,  999.0,  999.0,  999.0,  999.0,  999.0,   -0.3,   -6.1,    1.1,  999.0,  999.0,  999.0,  999.0,  999.0,  999.0,  999.0,  999.0,  999.0,  999.0,  999.0,  999.0,  999.0,  999.0,  999.0,  999.0,  999.0,  999.0,  999.0,  999.0,  999.0,  999.0,  999.0,  999.0,  999.0,  999.0,  999.0,  999.0,  999.0,  999.0,  999.0,  999.0,  999.0,  999.0,  999.0,  999.0,  999.0,  999.0,  999.0,  999.0,  999.0,  999.0,  999.0,  999.0,  999.0,  999.0,  999.0,  999.0,  999.0
2000/11/17 23:10,  999.0,  999.0,  999.0,  999.0,  999.0,   -0.4,    4.5,  999.0,   -1.5,   -2.2,  999.0,   -1.0,   -2.2,  999.0,  999.0,  999.0,  999.0,  999.0,  999.0,  999.0,  999.0,  999.0,  999.0,  999.0,  999.0,  999.0,  999.0,  999.0,  999.0,  999.0,  999.0,  999.0,  999.0,  999.0,  999.0,  999.0,  999.0,  999.0,    1.1,  999.0,  999.0,  999.0,    1.2,  999.0,  999.0,  999.0,  999.0,  999.0,  999.0,   -0.2,  999.0,  999.0,  999.0,  999.0,  999.0,  999.0,  999.0,  999.0
2000/11/17 23:20,  999.0,  999.0,   -5.6,  999.0,   -5.5,  999.0,   -3.7,    9.7,   -1.9,   -1.9,  999.0,   -2.1,  999.0,  999.0,  999.0,  999.0,  999.0,  999.0,  999.0,  999.0,    1.4,  999.0,  999.0,  999.0,  999.0,  999.0,  999.0,  999.0,  999.0,  999.0,  999.0,    4.5,  999.0,  999.0,  999.0,  999.0,  999.0,  999.0,  999.0,  999.0,  999.0,    0.1,    0.5,  999.0,  999.0,    0.9,    0.4,  999.0,    1.3,    0.7,  999.0,  999.0,  999.0,  999.0,    0.5,  999.0,  999.0,  999.0
2000/11/17 23:30,  999.0,  999.0,  999.0,  999.0,  999.0,  999.0,    4.4,    1.7,   -2.9,  999.0,    0.9,    0.8,    2.8,  999.0,  999.0,  999.0,  999.0,  999.0,  999.0,  999.0,  999.0,  999.0,  999.0,  999.0,  999.0,  999.0,  999.0,  999.0,  999.0,  999.0,  999.0,  999.0,    6.7,  999.0,  999.0,  999.0,  999.0,  999.0,  999.0,  999.0,    1.0,    0.9,    0.8,  999.0,    0.6,    0.4,  999.0,  999.0,    1.6,    1.4,  999.0,  999.0,  999.0,  999.0,    0.7,    0.6,  999.0,  999.0
2000/11/17 23:40,  999.0,  999.0,  999.0,  999.0,  999.0,  999.0,   -2.1,   -1.8,   -1.1,   -1.6,   -0.8,   -1.8,  999.0,   -2.5,  999.0,  999.0,  999.0,  999.0,  999.0,   -9.1,  999.0,   -5.4,   -6.9,  999.0,  999.0,  999.0,  999.0,  999.0,  999.0,  999.0,  999.0,  999.0,  999.0,  999.0,  999.0,  999.0,    0.6,  999.0,  999.0,    0.6,  999.0,  999.0,  999.0,  999.0,    1.3,    1.1,    1.0,  999.0,    0.4,    0.3,  999.0,    0.7,    0.5,  999.0,    0.4,    0.1,  999.0,  999.0
2000/11/17 23:50,  999.0,  999.0,  999.0,   -4.9,   -6.7,   -4.6,    0.8,   -0.5,  999.0,    2.4,   -1.8,   -2.8,   -2.9,  999.0,  999.0,   -3.7,  999.0,  999.0,  999.0,  999.0,  999.0,  999.0,  999.0,  999.0,  999.0,  999.0,  999.0,  999.0,  999.0,  999.0,  999.0,  999.0,  999.0,  999.0,  999.0,  999.0,    0.9,  999.0,  999.0,  999.0,    0.7,  999.0,  999.0,  999.0,    1.2,  999.0,  999.0,  999.0,  999.0,  999.0,  999.0,  999.0,  999.0,  999.0,  999.0,  999.0,  999.0,  999.0
